Observation data for Aiken on 09/12/2017      Previous  Date       Current Mesonet Observations  Soil Data  Daily Summary Page  Observations in Plain Language
KAI1 120500Z 14007KT 16/11 A3015 RMK A01 T01590114  RH  075%=      5-min Rain = 0
KAI1 120501Z 14007KT 16/11 A3015 RMK A01 T01590114  RH  075%=      5-min Rain = 0
KAI1 120502Z 14007KT 16/11 A3015 RMK A01 T01590114  RH  075%=      5-min Rain = 0
KAI1 120503Z 14007KT 16/11 A3015 RMK A01 T01590114  RH  075%=      5-min Rain = 0
KAI1 120504Z 13007KT 16/11 A3015 RMK A01 T01590114  RH  075%=      5-min Rain = 0
KAI1 120505Z 13007KT 16/11 A3015 RMK A01 T01590114  RH  075%=      5-min Rain = 0
KAI1 120506Z 13006KT 16/11 A3015 RMK A01 T01590114  RH  075%=      5-min Rain = 0
KAI1 120507Z 13006KT 16/12 A3015 RMK A01 T01580115  RH  075%=      5-min Rain = 0
KAI1 120508Z 13006KT 16/12 A3015 RMK A01 T01580115  RH  076%=      5-min Rain = 0
KAI1 120509Z 13006KT 16/12 A3015 RMK A01 T01580115  RH  076%=      5-min Rain = 0
KAI1 120510Z 13006KT 16/12 A3015 RMK A01 T01580115  RH  076%=      5-min Rain = 0
KAI1 120511Z 13006KT 16/12 A3015 RMK A01 T01580115  RH  076%=      5-min Rain = 0
KAI1 120512Z 13006KT 16/12 A3015 RMK A01 T01570115  RH  076%=      5-min Rain = 0
KAI1 120513Z 13006KT 16/12 A3015 RMK A01 T01570115  RH  076%=      5-min Rain = 0
KAI1 120514Z 13006KT 16/11 A3015 RMK A01 T01570114  RH  076%=      5-min Rain = 0
KAI1 120515Z 13006KT 16/12 A3015 RMK A01 T01570115  RH  076%=      5-min Rain = 0
KAI1 120516Z 13006KT 16/12 A3015 RMK A01 T01570115  RH  076%=      5-min Rain = 0
KAI1 120517Z 13006KT 16/12 A3015 RMK A01 T01570115  RH  076%=      5-min Rain = 0
KAI1 120518Z 13006KT 16/12 A3015 RMK A01 T01570115  RH  076%=      5-min Rain = 0
KAI1 120519Z 14006KT 16/12 A3015 RMK A01 T01570115  RH  076%=      5-min Rain = 0
KAI1 120520Z 14006KT 16/11 A3015 RMK A01 T01570114  RH  076%=      5-min Rain = 0
KAI1 120521Z 13006KT 16/11 A3015 RMK A01 T01570114  RH  075%=      5-min Rain = 0
KAI1 120522Z 13006KT 16/11 A3015 RMK A01 T01570114  RH  075%=      5-min Rain = 0
KAI1 120523Z 13005KT 16/11 A3015 RMK A01 T01570114  RH  075%=      5-min Rain = 0
KAI1 120524Z 13005KT 16/12 A3015 RMK A01 T01580115  RH  076%=      5-min Rain = 0
KAI1 120525Z 13005KT 16/12 A3015 RMK A01 T01580117  RH  076%=      5-min Rain = 0
KAI1 120526Z 13005KT 16/12 A3015 RMK A01 T01580117  RH  077%=      5-min Rain = 0
KAI1 120527Z 13005KT 16/12 A3015 RMK A01 T01570117  RH  077%=      5-min Rain = 0
KAI1 120528Z 13005KT 16/12 A3015 RMK A01 T01570118  RH  077%=      5-min Rain = 0
KAI1 120529Z 13006KT 16/12 A3015 RMK A01 T01570118  RH  077%=      5-min Rain = 0
KAI1 120530Z 13005KT 16/12 A3015 RMK A01 T01570117  RH  077%=      5-min Rain = 0
KAI1 120531Z 13006KT 16/12 A3015 RMK A01 T01570117  RH  077%=      5-min Rain = 0
KAI1 120532Z 13006KT 16/12 A3015 RMK A01 T01580118  RH  077%=      5-min Rain = 0
KAI1 120533Z 13006KT 16/12 A3015 RMK A01 T01580117  RH  077%=      5-min Rain = 0
KAI1 120534Z 13006KT 16/12 A3015 RMK A01 T01580116  RH  076%=      5-min Rain = 0
KAI1 120535Z 13005KT 16/12 A3015 RMK A01 T01580115  RH  076%=      5-min Rain = 0
KAI1 120536Z 13005KT 16/12 A3015 RMK A01 T01590115  RH  075%=      5-min Rain = 0
KAI1 120537Z 13005KT 16/12 A3015 RMK A01 T01590115  RH  075%=      5-min Rain = 0
KAI1 120538Z 13005KT 16/12 A3015 RMK A01 T01600115  RH  075%=      5-min Rain = 0
KAI1 120539Z 13005KT 16/12 A3015 RMK A01 T01600115  RH  075%=      5-min Rain = 0
KAI1 120540Z 13005KT 16/11 A3015 RMK A01 T01610114  RH  074%=      5-min Rain = 0
KAI1 120541Z 13006KT 16/11 A3015 RMK A01 T01610114  RH  074%=      5-min Rain = 0
KAI1 120542Z 13006KT 16/11 A3015 RMK A01 T01610114  RH  073%=      5-min Rain = 0
KAI1 120543Z 13006KT 16/11 A3015 RMK A01 T01620114  RH  073%=      5-min Rain = 0
KAI1 120544Z 13005KT 16/11 A3015 RMK A01 T01620114  RH  073%=      5-min Rain = 0
KAI1 120545Z 13005KT 16/11 A3015 RMK A01 T01620114  RH  073%=      5-min Rain = 0
KAI1 120546Z 13006KT 16/12 A3015 RMK A01 T01620115  RH  074%=      5-min Rain = 0
KAI1 120547Z 13005KT 16/12 A3014 RMK A01 T01610115  RH  074%=      5-min Rain = 0
KAI1 120548Z 13006KT 16/12 A3014 RMK A01 T01600116  RH  075%=      5-min Rain = 0
KAI1 120549Z 13006KT 16/12 A3014 RMK A01 T01590115  RH  075%=      5-min Rain = 0
KAI1 120550Z 14006KT 16/12 A3014 RMK A01 T01590115  RH  075%=      5-min Rain = 0
KAI1 120551Z 14006KT 16/11 A3014 RMK A01 T01590114  RH  075%=      5-min Rain = 0
KAI1 120552Z 14006KT 16/11 A3014 RMK A01 T01590114  RH  075%=      5-min Rain = 0
KAI1 120553Z 13006KT 16/11 A3014 RMK A01 T01590114  RH  075%=      5-min Rain = 0
KAI1 120554Z 14006KT 16/11 A3014 RMK A01 T01580113  RH  074%=      5-min Rain = 0
KAI1 120555Z 14006KT 16/11 A3014 RMK A01 T01580112  RH  074%=      5-min Rain = 0
KAI1 120556Z 14006KT 16/11 A3014 RMK A01 T01580112  RH  074%=      5-min Rain = 0
KAI1 120557Z 14006KT 16/11 A3014 RMK A01 T01580112  RH  074%=      5-min Rain = 0
KAI1 120558Z 14006KT 16/11 A3014 RMK A01 T01580111  RH  074%=      5-min Rain = 0
KAI1 120559Z 14006KT 16/11 A3014 RMK A01 T01580111  RH  074%=      5-min Rain = 0
KAI1 120600Z 14007KT 16/11 A3014 RMK A01 T01580110  RH  073%=      5-min Rain = 0
KAI1 120601Z 14007KT 16/11 A3014 RMK A01 T01580109  RH  073%=      5-min Rain = 0
KAI1 120602Z 13006KT 16/11 A3014 RMK A01 T01580110  RH  073%=      5-min Rain = 0
KAI1 120603Z 14006KT 16/11 A3014 RMK A01 T01570110  RH  073%=      5-min Rain = 0
KAI1 120604Z 14006KT 16/11 A3014 RMK A01 T01560110  RH  074%=      5-min Rain = 0
KAI1 120605Z 13006KT 16/11 A3014 RMK A01 T01560110  RH  074%=      5-min Rain = 0
KAI1 120606Z 13006KT 16/11 A3014 RMK A01 T01560110  RH  074%=      5-min Rain = 0
KAI1 120607Z 13006KT 16/11 A3014 RMK A01 T01560110  RH  074%=      5-min Rain = 0
KAI1 120608Z 13006KT 16/11 A3014 RMK A01 T01550110  RH  074%=      5-min Rain = 0
KAI1 120609Z 13006KT 16/11 A3014 RMK A01 T01560110  RH  074%=      5-min Rain = 0
KAI1 120610Z 13005KT 16/11 A3014 RMK A01 T01560110  RH  074%=      5-min Rain = 0
KAI1 120611Z 14006KT 16/11 A3014 RMK A01 T01560109  RH  074%=      5-min Rain = 0
KAI1 120612Z 14006KT 16/11 A3014 RMK A01 T01570109  RH  073%=      5-min Rain = 0
KAI1 120613Z 14006KT 16/11 A3014 RMK A01 T01570109  RH  073%=      5-min Rain = 0
KAI1 120614Z 14006KT 16/11 A3014 RMK A01 T01570109  RH  073%=      5-min Rain = 0
KAI1 120615Z 14006KT 16/11 A3014 RMK A01 T01570109  RH  073%=      5-min Rain = 0
KAI1 120616Z 14006KT 16/11 A3014 RMK A01 T01570108  RH  072%=      5-min Rain = 0
KAI1 120617Z 14006KT 16/11 A3014 RMK A01 T01570107  RH  072%=      5-min Rain = 0
KAI1 120618Z 14006KT 16/11 A3014 RMK A01 T01570108  RH  072%=      5-min Rain = 0
KAI1 120619Z 14006KT 16/11 A3014 RMK A01 T01580108  RH  072%=      5-min Rain = 0
KAI1 120620Z 14006KT 16/11 A3014 RMK A01 T01570108  RH  072%=      5-min Rain = 0
KAI1 120621Z 14005KT 16/11 A3014 RMK A01 T01580108  RH  072%=      5-min Rain = 0
KAI1 120622Z 14005KT 16/11 A3014 RMK A01 T01580108  RH  072%=      5-min Rain = 0
KAI1 120623Z 14005KT 16/11 A3014 RMK A01 T01570108  RH  072%=      5-min Rain = 0
KAI1 120624Z 14005KT 16/11 A3014 RMK A01 T01580108  RH  072%=      5-min Rain = 0
KAI1 120625Z 14005KT 16/11 A3014 RMK A01 T01580108  RH  072%=      5-min Rain = 0
KAI1 120626Z 14005KT 16/11 A3014 RMK A01 T01580108  RH  072%=      5-min Rain = 0
KAI1 120627Z 15005KT 16/11 A3014 RMK A01 T01580108  RH  072%=      5-min Rain = 0
KAI1 120628Z 15005KT 16/11 A3014 RMK A01 T01570108  RH  072%=      5-min Rain = 0
KAI1 120629Z 15005KT 16/11 A3014 RMK A01 T01570108  RH  073%=      5-min Rain = 0
KAI1 120630Z 15004KT 16/11 A3014 RMK A01 T01560107  RH  072%=      5-min Rain = 0
KAI1 120631Z 15004KT 15/11 A3014 RMK A01 T01540106  RH  073%=      5-min Rain = 0
KAI1 120632Z 15004KT 15/11 A3014 RMK A01 T01530107  RH  074%=      5-min Rain = 0
KAI1 120633Z 15004KT 15/11 A3014 RMK A01 T01530108  RH  075%=      5-min Rain = 0
KAI1 120634Z 15004KT 15/11 A3014 RMK A01 T01520108  RH  075%=      5-min Rain = 0
KAI1 120635Z 15004KT 15/11 A3014 RMK A01 T01520108  RH  075%=      5-min Rain = 0
KAI1 120636Z 15003KT 15/11 A3014 RMK A01 T01510108  RH  075%=      5-min Rain = 0
KAI1 120637Z 15003KT 15/11 A3014 RMK A01 T01510108  RH  076%=      5-min Rain = 0
KAI1 120638Z 15003KT 15/11 A3014 RMK A01 T01500109  RH  076%=      5-min Rain = 0
KAI1 120639Z 16003KT 15/11 A3014 RMK A01 T01490109  RH  077%=      5-min Rain = 0
KAI1 120640Z 16003KT 15/11 A3014 RMK A01 T01500110  RH  077%=      5-min Rain = 0
KAI1 120641Z 16003KT 15/11 A3014 RMK A01 T01490111  RH  078%=      5-min Rain = 0
KAI1 120642Z 16003KT 15/11 A3014 RMK A01 T01500111  RH  078%=      5-min Rain = 0
KAI1 120643Z 15003KT 15/11 A3014 RMK A01 T01500111  RH  077%=      5-min Rain = 0
KAI1 120644Z 15003KT 15/11 A3014 RMK A01 T01500110  RH  077%=      5-min Rain = 0
KAI1 120645Z 15003KT 15/11 A3014 RMK A01 T01500110  RH  077%=      5-min Rain = 0
KAI1 120646Z 15003KT 15/11 A3014 RMK A01 T01500109  RH  076%=      5-min Rain = 0
KAI1 120647Z 16003KT 15/11 A3014 RMK A01 T01500109  RH  076%=      5-min Rain = 0
KAI1 120648Z 16003KT 15/11 A3014 RMK A01 T01500110  RH  077%=      5-min Rain = 0
KAI1 120649Z 16003KT 15/11 A3014 RMK A01 T01500111  RH  077%=      5-min Rain = 0
KAI1 120650Z 17003KT 15/11 A3014 RMK A01 T01510112  RH  078%=      5-min Rain = 0
KAI1 120651Z 17003KT 15/11 A3014 RMK A01 T01510111  RH  077%=      5-min Rain = 0
KAI1 120652Z 17003KT 15/11 A3014 RMK A01 T01520111  RH  076%=      5-min Rain = 0
KAI1 120653Z 16003KT 15/11 A3014 RMK A01 T01520110  RH  076%=      5-min Rain = 0
KAI1 120654Z 16003KT 15/11 A3014 RMK A01 T01530110  RH  075%=      5-min Rain = 0
KAI1 120655Z 16003KT 15/11 A3014 RMK A01 T01530110  RH  075%=      5-min Rain = 0
KAI1 120656Z 16003KT 15/11 A3014 RMK A01 T01530110  RH  075%=      5-min Rain = 0
KAI1 120657Z 17003KT 15/11 A3014 RMK A01 T01530110  RH  076%=      5-min Rain = 0
KAI1 120658Z 17003KT 15/11 A3014 RMK A01 T01520110  RH  076%=      5-min Rain = 0
KAI1 120659Z 18003KT 15/11 A3014 RMK A01 T01520110  RH  076%=      5-min Rain = 0
KAI1 120700Z 18003KT 15/11 A3014 RMK A01 T01520110  RH  076%=      5-min Rain = 0
KAI1 120701Z 18002KT 15/11 A3014 RMK A01 T01520110  RH  076%=      5-min Rain = 0
KAI1 120702Z 19002KT 15/11 A3013 RMK A01 T01510111  RH  077%=      5-min Rain = 0
KAI1 120703Z 19002KT 15/11 A3013 RMK A01 T01510111  RH  077%=      5-min Rain = 0
KAI1 120704Z 20002KT 15/11 A3013 RMK A01 T01500111  RH  078%=      5-min Rain = 0
KAI1 120705Z 20002KT 15/11 A3013 RMK A01 T01490111  RH  078%=      5-min Rain = 0
KAI1 120706Z 20002KT 15/11 A3013 RMK A01 T01470110  RH  079%=      5-min Rain = 0
KAI1 120707Z 20002KT 15/11 A3013 RMK A01 T01460110  RH  079%=      5-min Rain = 0
KAI1 120708Z 20002KT 15/11 A3013 RMK A01 T01450109  RH  079%=      5-min Rain = 0
KAI1 120709Z 20002KT 14/11 A3013 RMK A01 T01440108  RH  079%=      5-min Rain = 0
KAI1 120710Z 21002KT 14/11 A3013 RMK A01 T01430108  RH  080%=      5-min Rain = 0
KAI1 120711Z 21002KT 14/11 A3013 RMK A01 T01420109  RH  080%=      5-min Rain = 0
KAI1 120712Z 21002KT 14/11 A3013 RMK A01 T01410109  RH  081%=      5-min Rain = 0
KAI1 120713Z 20002KT 14/11 A3013 RMK A01 T01410109  RH  081%=      5-min Rain = 0
KAI1 120714Z 20002KT 14/11 A3013 RMK A01 T01410109  RH  081%=      5-min Rain = 0
KAI1 120715Z 20002KT 14/11 A3013 RMK A01 T01410109  RH  081%=      5-min Rain = 0
KAI1 120716Z 21002KT 14/11 A3013 RMK A01 T01410108  RH  081%=      5-min Rain = 0
KAI1 120717Z 21002KT 14/11 A3013 RMK A01 T01410108  RH  081%=      5-min Rain = 0
KAI1 120718Z 21002KT 14/11 A3013 RMK A01 T01410108  RH  081%=      5-min Rain = 0
KAI1 120719Z 20002KT 14/11 A3013 RMK A01 T01410108  RH  081%=      5-min Rain = 0
KAI1 120720Z 20001KT 14/11 A3013 RMK A01 T01410108  RH  081%=      5-min Rain = 0
KAI1 120721Z 20001KT 14/11 A3013 RMK A01 T01400108  RH  081%=      5-min Rain = 0
KAI1 120722Z 20001KT 14/11 A3013 RMK A01 T01400109  RH  081%=      5-min Rain = 0
KAI1 120723Z 20001KT 14/11 A3013 RMK A01 T01400108  RH  081%=      5-min Rain = 0
KAI1 120724Z 20001KT 14/11 A3013 RMK A01 T01400108  RH  081%=      5-min Rain = 0
KAI1 120725Z 21001KT 14/11 A3013 RMK A01 T01400108  RH  081%=      5-min Rain = 0
KAI1 120726Z 22001KT 14/11 A3013 RMK A01 T01410108  RH  081%=      5-min Rain = 0
KAI1 120727Z 23002KT 14/11 A3013 RMK A01 T01410108  RH  080%=      5-min Rain = 0
KAI1 120728Z 23002KT 14/11 A3013 RMK A01 T01410108  RH  081%=      5-min Rain = 0
KAI1 120729Z 23002KT 14/11 A3013 RMK A01 T01410109  RH  081%=      5-min Rain = 0
KAI1 120730Z 22002KT 14/11 A3013 RMK A01 T01410109  RH  081%=      5-min Rain = 0
KAI1 120731Z 22001KT 14/11 A3013 RMK A01 T01410108  RH  081%=      5-min Rain = 0
KAI1 120732Z 22001KT 14/11 A3013 RMK A01 T01410108  RH  080%=      5-min Rain = 0
KAI1 120733Z 23001KT 14/11 A3013 RMK A01 T01410107  RH  080%=      5-min Rain = 0
KAI1 120734Z 23001KT 14/11 A3013 RMK A01 T01410108  RH  080%=      5-min Rain = 0
KAI1 120735Z 23002KT 14/11 A3013 RMK A01 T01410108  RH  081%=      5-min Rain = 0
KAI1 120736Z 24001KT 14/11 A3013 RMK A01 T01410108  RH  081%=      5-min Rain = 0
KAI1 120737Z 23001KT 14/11 A3013 RMK A01 T01410109  RH  081%=      5-min Rain = 0
KAI1 120738Z 23001KT 14/11 A3013 RMK A01 T01410109  RH  081%=      5-min Rain = 0
KAI1 120739Z 23001KT 14/11 A3013 RMK A01 T01410108  RH  081%=      5-min Rain = 0
KAI1 120740Z 22001KT 14/11 A3013 RMK A01 T01410108  RH  081%=      5-min Rain = 0
KAI1 120741Z 21001KT 14/11 A3013 RMK A01 T01410108  RH  081%=      5-min Rain = 0
KAI1 120742Z 21001KT 14/11 A3013 RMK A01 T01410108  RH  081%=      5-min Rain = 0
KAI1 120743Z 21001KT 14/11 A3013 RMK A01 T01400108  RH  081%=      5-min Rain = 0
KAI1 120744Z 20001KT 14/11 A3013 RMK A01 T01410108  RH  081%=      5-min Rain = 0
KAI1 120745Z 21001KT 14/11 A3013 RMK A01 T01410108  RH  081%=      5-min Rain = 0
KAI1 120746Z 21001KT 14/11 A3013 RMK A01 T01410108  RH  080%=      5-min Rain = 0
KAI1 120747Z 21001KT 14/11 A3013 RMK A01 T01410107  RH  080%=      5-min Rain = 0
KAI1 120748Z 22002KT 14/11 A3013 RMK A01 T01410107  RH  080%=      5-min Rain = 0
KAI1 120749Z 22002KT 14/11 A3013 RMK A01 T01410107  RH  080%=      5-min Rain = 0
KAI1 120750Z 22002KT 14/11 A3013 RMK A01 T01410107  RH  080%=      5-min Rain = 0
KAI1 120751Z 22002KT 14/11 A3013 RMK A01 T01410107  RH  080%=      5-min Rain = 0
KAI1 120752Z 22002KT 14/11 A3013 RMK A01 T01400106  RH  080%=      5-min Rain = 0
KAI1 120753Z 22002KT 14/11 A3013 RMK A01 T01390106  RH  080%=      5-min Rain = 0
KAI1 120754Z 22002KT 14/11 A3013 RMK A01 T01390106  RH  081%=      5-min Rain = 0
KAI1 120755Z 22002KT 14/11 A3012 RMK A01 T01380107  RH  082%=      5-min Rain = 0
KAI1 120756Z 22002KT 14/11 A3012 RMK A01 T01380107  RH  082%=      5-min Rain = 0
KAI1 120757Z 22002KT 14/11 A3012 RMK A01 T01380109  RH  083%=      5-min Rain = 0
KAI1 120758Z 23002KT 14/11 A3012 RMK A01 T01370108  RH  083%=      5-min Rain = 0
KAI1 120759Z 23002KT 14/11 A3012 RMK A01 T01370108  RH  083%=      5-min Rain = 0
KAI1 120800Z 22002KT 14/11 A3012 RMK A01 T01370108  RH  083%=      5-min Rain = 0
KAI1 120801Z 22002KT 14/11 A3012 RMK A01 T01370108  RH  083%=      5-min Rain = 0
KAI1 120802Z 22002KT 14/11 A3012 RMK A01 T01370108  RH  083%=      5-min Rain = 0
KAI1 120803Z 22002KT 14/11 A3012 RMK A01 T01370108  RH  083%=      5-min Rain = 0
KAI1 120804Z 22002KT 14/11 A3012 RMK A01 T01370108  RH  083%=      5-min Rain = 0
KAI1 120805Z 23002KT 14/11 A3012 RMK A01 T01370108  RH  083%=      5-min Rain = 0
KAI1 120806Z 23002KT 14/11 A3012 RMK A01 T01370108  RH  083%=      5-min Rain = 0
KAI1 120807Z 24002KT 14/11 A3012 RMK A01 T01370108  RH  083%=      5-min Rain = 0
KAI1 120808Z 24002KT 14/11 A3012 RMK A01 T01370108  RH  082%=      5-min Rain = 0
KAI1 120809Z 24002KT 14/11 A3012 RMK A01 T01370107  RH  083%=      5-min Rain = 0
KAI1 120810Z 24002KT 14/11 A3012 RMK A01 T01360107  RH  082%=      5-min Rain = 0
KAI1 120811Z 24002KT 14/11 A3012 RMK A01 T01360107  RH  083%=      5-min Rain = 0
KAI1 120812Z 24002KT 14/11 A3012 RMK A01 T01350107  RH  083%=      5-min Rain = 0
KAI1 120813Z 24003KT 14/11 A3012 RMK A01 T01350107  RH  083%=      5-min Rain = 0
KAI1 120814Z 24003KT 14/11 A3012 RMK A01 T01350106  RH  083%=      5-min Rain = 0
KAI1 120815Z 24003KT 14/11 A3012 RMK A01 T01350106  RH  083%=      5-min Rain = 0
KAI1 120816Z 24002KT 13/11 A3012 RMK A01 T01340106  RH  083%=      5-min Rain = 0
KAI1 120817Z 24002KT 13/11 A3012 RMK A01 T01340106  RH  083%=      5-min Rain = 0
KAI1 120818Z 23002KT 13/11 A3012 RMK A01 T01340106  RH  083%=      5-min Rain = 0
KAI1 120819Z 22002KT 13/11 A3012 RMK A01 T01340106  RH  083%=      5-min Rain = 0
KAI1 120820Z 22002KT 13/11 A3012 RMK A01 T01340105  RH  083%=      5-min Rain = 0
KAI1 120821Z 22002KT 13/11 A3012 RMK A01 T01340105  RH  083%=      5-min Rain = 0
KAI1 120822Z 22002KT 13/10 A3012 RMK A01 T01330104  RH  082%=      5-min Rain = 0
KAI1 120823Z 22002KT 13/10 A3012 RMK A01 T01330104  RH  082%=      5-min Rain = 0
KAI1 120824Z 23002KT 13/11 A3012 RMK A01 T01330106  RH  083%=      5-min Rain = 0
KAI1 120825Z 23002KT 13/11 A3012 RMK A01 T01330105  RH  083%=      5-min Rain = 0
KAI1 120826Z 23002KT 13/10 A3012 RMK A01 T01330104  RH  082%=      5-min Rain = 0
KAI1 120827Z 22002KT 13/10 A3012 RMK A01 T01330103  RH  082%=      5-min Rain = 0
KAI1 120828Z 22002KT 13/10 A3011 RMK A01 T01340103  RH  081%=      5-min Rain = 0
KAI1 120829Z 22002KT 13/10 A3011 RMK A01 T01340102  RH  081%=      5-min Rain = 0
KAI1 120830Z 21002KT 13/10 A3011 RMK A01 T01340103  RH  081%=      5-min Rain = 0
KAI1 120831Z 22002KT 13/10 A3011 RMK A01 T01340103  RH  082%=      5-min Rain = 0
KAI1 120832Z 22002KT 14/11 A3011 RMK A01 T01350105  RH  082%=      5-min Rain = 0
KAI1 120833Z 22002KT 14/11 A3011 RMK A01 T01350105  RH  082%=      5-min Rain = 0
KAI1 120834Z 22002KT 14/10 A3011 RMK A01 T01360104  RH  081%=      5-min Rain = 0
KAI1 120835Z 23003KT 14/11 A3012 RMK A01 T01360105  RH  082%=      5-min Rain = 0
KAI1 120836Z 23002KT 14/11 A3012 RMK A01 T01370105  RH  081%=      5-min Rain = 0
KAI1 120837Z 23002KT 14/11 A3012 RMK A01 T01370106  RH  082%=      5-min Rain = 0
KAI1 120838Z 23002KT 14/11 A3012 RMK A01 T01370107  RH  082%=      5-min Rain = 0
KAI1 120839Z 23002KT 14/11 A3011 RMK A01 T01380107  RH  082%=      5-min Rain = 0
KAI1 120840Z 23002KT 14/11 A3011 RMK A01 T01370107  RH  082%=      5-min Rain = 0
KAI1 120841Z 23002KT 14/11 A3011 RMK A01 T01370105  RH  081%=      5-min Rain = 0
KAI1 120842Z 24002KT 14/11 A3011 RMK A01 T01370106  RH  082%=      5-min Rain = 0
KAI1 120843Z 24002KT 14/11 A3011 RMK A01 T01370106  RH  082%=      5-min Rain = 0
KAI1 120844Z 23002KT 14/11 A3011 RMK A01 T01360106  RH  082%=      5-min Rain = 0
KAI1 120845Z 23002KT 14/11 A3011 RMK A01 T01360107  RH  083%=      5-min Rain = 0
KAI1 120846Z 23002KT 14/11 A3011 RMK A01 T01360107  RH  083%=      5-min Rain = 0
KAI1 120847Z 23002KT 14/11 A3011 RMK A01 T01350106  RH  083%=      5-min Rain = 0
KAI1 120848Z 23002KT 14/11 A3011 RMK A01 T01360107  RH  083%=      5-min Rain = 0
KAI1 120849Z 23002KT 14/11 A3011 RMK A01 T01360107  RH  083%=      5-min Rain = 0
KAI1 120850Z 23002KT 14/11 A3011 RMK A01 T01350107  RH  083%=      5-min Rain = 0
KAI1 120851Z 23002KT 14/11 A3011 RMK A01 T01350107  RH  083%=      5-min Rain = 0
KAI1 120852Z 22002KT 14/11 A3011 RMK A01 T01350107  RH  083%=      5-min Rain = 0
KAI1 120853Z 23002KT 14/11 A3011 RMK A01 T01350107  RH  083%=      5-min Rain = 0
KAI1 120854Z 23002KT 14/11 A3011 RMK A01 T01350107  RH  083%=      5-min Rain = 0
KAI1 120855Z 23002KT 14/11 A3011 RMK A01 T01350106  RH  083%=      5-min Rain = 0
KAI1 120856Z 23002KT 14/11 A3011 RMK A01 T01350107  RH  083%=      5-min Rain = 0
KAI1 120857Z 24002KT 14/11 A3011 RMK A01 T01350106  RH  083%=      5-min Rain = 0
KAI1 120858Z 24002KT 14/11 A3011 RMK A01 T01360106  RH  082%=      5-min Rain = 0
KAI1 120859Z 24002KT 14/11 A3011 RMK A01 T01360105  RH  081%=      5-min Rain = 0
KAI1 120900Z 24002KT 14/11 A3011 RMK A01 T01360105  RH  082%=      5-min Rain = 0
KAI1 120901Z 24002KT 14/11 A3011 RMK A01 T01360105  RH  082%=      5-min Rain = 0
KAI1 120902Z 24002KT 14/11 A3011 RMK A01 T01360105  RH  082%=      5-min Rain = 0
KAI1 120903Z 23002KT 14/11 A3011 RMK A01 T01360105  RH  081%=      5-min Rain = 0
KAI1 120904Z 23002KT 14/10 A3011 RMK A01 T01360104  RH  081%=      5-min Rain = 0
KAI1 120905Z 24002KT 14/10 A3011 RMK A01 T01360104  RH  081%=      5-min Rain = 0
KAI1 120906Z 24002KT 14/10 A3011 RMK A01 T01360104  RH  081%=      5-min Rain = 0
KAI1 120907Z 24002KT 14/11 A3011 RMK A01 T01360105  RH  082%=      5-min Rain = 0
KAI1 120908Z 24002KT 14/10 A3011 RMK A01 T01360104  RH  081%=      5-min Rain = 0
KAI1 120909Z 24003KT 14/10 A3011 RMK A01 T01350104  RH  081%=      5-min Rain = 0
KAI1 120910Z 24002KT 14/10 A3011 RMK A01 T01350104  RH  081%=      5-min Rain = 0
KAI1 120911Z 24002KT 14/10 A3011 RMK A01 T01350104  RH  082%=      5-min Rain = 0
KAI1 120912Z 24002KT 13/10 A3011 RMK A01 T01340103  RH  082%=      5-min Rain = 0
KAI1 120913Z 24002KT 13/10 A3011 RMK A01 T01340103  RH  082%=      5-min Rain = 0
KAI1 120914Z 24002KT 13/10 A3011 RMK A01 T01340103  RH  082%=      5-min Rain = 0
KAI1 120915Z 24002KT 13/10 A3011 RMK A01 T01340103  RH  082%=      5-min Rain = 0
KAI1 120916Z 24002KT 13/10 A3011 RMK A01 T01330103  RH  082%=      5-min Rain = 0
KAI1 120917Z 23002KT 13/10 A3011 RMK A01 T01330104  RH  082%=      5-min Rain = 0
KAI1 120918Z 23002KT 13/10 A3011 RMK A01 T01330104  RH  082%=      5-min Rain = 0
KAI1 120919Z 23002KT 13/10 A3011 RMK A01 T01330104  RH  082%=      5-min Rain = 0
KAI1 120920Z 23002KT 13/10 A3011 RMK A01 T01330104  RH  082%=      5-min Rain = 0
KAI1 120921Z 24002KT 13/10 A3011 RMK A01 T01330104  RH  082%=      5-min Rain = 0
KAI1 120922Z 24002KT 13/10 A3011 RMK A01 T01330103  RH  082%=      5-min Rain = 0
KAI1 120923Z 24001KT 13/10 A3011 RMK A01 T01320101  RH  081%=      5-min Rain = 0
KAI1 120924Z 24001KT 13/10 A3011 RMK A01 T01330102  RH  082%=      5-min Rain = 0
KAI1 120925Z 24002KT 13/10 A3011 RMK A01 T01320102  RH  082%=      5-min Rain = 0
KAI1 120926Z 25002KT 13/10 A3011 RMK A01 T01320102  RH  082%=      5-min Rain = 0
KAI1 120927Z 24002KT 13/10 A3011 RMK A01 T01320102  RH  082%=      5-min Rain = 0
KAI1 120928Z 24002KT 13/10 A301 RMK A01 T01320103  RH  082%=      5-min Rain = 0
KAI1 120929Z 24002KT 13/10 A301 RMK A01 T01330104  RH  082%=      5-min Rain = 0
KAI1 120930Z 24002KT 13/10 A301 RMK A01 T01340104  RH  082%=      5-min Rain = 0
KAI1 120931Z 24002KT 14/11 A301 RMK A01 T01350105  RH  082%=      5-min Rain = 0
KAI1 120932Z 24002KT 14/10 A301 RMK A01 T01350104  RH  082%=      5-min Rain = 0
KAI1 120933Z 25002KT 14/10 A301 RMK A01 T01350104  RH  081%=      5-min Rain = 0
KAI1 120934Z 25002KT 14/10 A301 RMK A01 T01360104  RH  081%=      5-min Rain = 0
KAI1 120935Z 25002KT 14/10 A301 RMK A01 T01360104  RH  081%=      5-min Rain = 0
KAI1 120936Z 25002KT 14/10 A301 RMK A01 T01350103  RH  081%=      5-min Rain = 0
KAI1 120937Z 25002KT 13/10 A301 RMK A01 T01340102  RH  081%=      5-min Rain = 0
KAI1 120938Z 25002KT 13/10 A301 RMK A01 T01340102  RH  081%=      5-min Rain = 0
KAI1 120939Z 25002KT 13/10 A301 RMK A01 T01330102  RH  081%=      5-min Rain = 0
KAI1 120940Z 25002KT 13/10 A301 RMK A01 T01330102  RH  081%=      5-min Rain = 0
KAI1 120941Z 24002KT 13/10 A301 RMK A01 T01330102  RH  082%=      5-min Rain = 0
KAI1 120942Z 24002KT 13/10 A301 RMK A01 T01330102  RH  082%=      5-min Rain = 0
KAI1 120943Z 25002KT 13/10 A301 RMK A01 T01330102  RH  082%=      5-min Rain = 0
KAI1 120944Z 24002KT 13/10 A301 RMK A01 T01330103  RH  082%=      5-min Rain = 0
KAI1 120945Z 25002KT 13/10 A301 RMK A01 T01330103  RH  082%=      5-min Rain = 0
KAI1 120946Z 25003KT 13/10 A301 RMK A01 T01330103  RH  082%=      5-min Rain = 0
KAI1 120947Z 25002KT 13/10 A301 RMK A01 T01330103  RH  082%=      5-min Rain = 0
KAI1 120948Z 25002KT 13/10 A301 RMK A01 T01330103  RH  082%=      5-min Rain = 0
KAI1 120949Z 25002KT 13/10 A301 RMK A01 T01320103  RH  082%=      5-min Rain = 0
KAI1 120950Z 26003KT 13/10 A301 RMK A01 T01320103  RH  082%=      5-min Rain = 0
KAI1 120951Z 25002KT 13/10 A301 RMK A01 T01320103  RH  082%=      5-min Rain = 0
KAI1 120952Z 25002KT 13/10 A301 RMK A01 T01320103  RH  082%=      5-min Rain = 0
KAI1 120953Z 25002KT 13/10 A301 RMK A01 T01320102  RH  082%=      5-min Rain = 0
KAI1 120954Z 24002KT 13/10 A301 RMK A01 T01320102  RH  082%=      5-min Rain = 0
KAI1 120955Z 24002KT 13/10 A301 RMK A01 T01320102  RH  082%=      5-min Rain = 0
KAI1 120956Z 24002KT 13/10 A301 RMK A01 T01320101  RH  081%=      5-min Rain = 0
KAI1 120957Z 25002KT 13/10 A301 RMK A01 T01320099  RH  080%=      5-min Rain = 0
KAI1 120958Z 25002KT 13/10 A301 RMK A01 T01310099  RH  081%=      5-min Rain = 0
KAI1 120959Z 25002KT 13/10 A301 RMK A01 T01320100  RH  081%=      5-min Rain = 0
KAI1 121000Z 25002KT 13/10 A301 RMK A01 T01310099  RH  081%=      5-min Rain = 0
KAI1 121001Z 25002KT 13/10 A301 RMK A01 T01310098  RH  081%=      5-min Rain = 0
KAI1 121002Z 25002KT 13/10 A301 RMK A01 T01300098  RH  081%=      5-min Rain = 0
KAI1 121003Z 25001KT 13/10 A301 RMK A01 T01300099  RH  081%=      5-min Rain = 0
KAI1 121004Z 25001KT 13/10 A301 RMK A01 T01300098  RH  081%=      5-min Rain = 0
KAI1 121005Z 26001KT 13/10 A301 RMK A01 T01300099  RH  081%=      5-min Rain = 0
KAI1 121006Z 25001KT 13/10 A301 RMK A01 T01290099  RH  082%=      5-min Rain = 0
KAI1 121007Z 24001KT 13/10 A301 RMK A01 T01290099  RH  082%=      5-min Rain = 0
KAI1 121008Z 24001KT 13/10 A301 RMK A01 T01290100  RH  083%=      5-min Rain = 0
KAI1 121009Z 25001KT 13/10 A301 RMK A01 T01290101  RH  083%=      5-min Rain = 0
KAI1 121010Z 25001KT 13/10 A301 RMK A01 T01290101  RH  083%=      5-min Rain = 0
KAI1 121011Z 25001KT 13/10 A301 RMK A01 T01290101  RH  083%=      5-min Rain = 0
KAI1 121012Z 25001KT 13/10 A301 RMK A01 T01290101  RH  083%=      5-min Rain = 0
KAI1 121013Z 25001KT 13/10 A301 RMK A01 T01290101  RH  083%=      5-min Rain = 0
KAI1 121014Z 26001KT 13/10 A301 RMK A01 T01280100  RH  083%=      5-min Rain = 0
KAI1 121015Z 26002KT 13/10 A301 RMK A01 T01280099  RH  083%=      5-min Rain = 0
KAI1 121016Z 27002KT 13/10 A301 RMK A01 T01270099  RH  083%=      5-min Rain = 0
KAI1 121017Z 26002KT 13/10 A301 RMK A01 T01270098  RH  083%=      5-min Rain = 0
KAI1 121018Z 26002KT 13/10 A301 RMK A01 T01270099  RH  083%=      5-min Rain = 0
KAI1 121019Z 26002KT 13/10 A301 RMK A01 T01270099  RH  083%=      5-min Rain = 0
KAI1 121020Z 26002KT 13/10 A301 RMK A01 T01270099  RH  083%=      5-min Rain = 0
KAI1 121021Z 26002KT 13/10 A301 RMK A01 T01270099  RH  083%=      5-min Rain = 0
KAI1 121022Z 26002KT 13/10 A301 RMK A01 T01270100  RH  084%=      5-min Rain = 0
KAI1 121023Z 27002KT 13/10 A301 RMK A01 T01270100  RH  084%=      5-min Rain = 0
KAI1 121024Z 27002KT 13/10 A301 RMK A01 T01270100  RH  084%=      5-min Rain = 0
KAI1 121025Z 27002KT 13/10 A301 RMK A01 T01270101  RH  084%=      5-min Rain = 0
KAI1 121026Z 26001KT 13/10 A301 RMK A01 T01270101  RH  084%=      5-min Rain = 0
KAI1 121027Z 25001KT 13/10 A301 RMK A01 T01270100  RH  084%=      5-min Rain = 0
KAI1 121028Z 26001KT 13/10 A301 RMK A01 T01270100  RH  084%=      5-min Rain = 0
KAI1 121029Z 25001KT 13/10 A301 RMK A01 T01270100  RH  083%=      5-min Rain = 0
KAI1 121030Z 26001KT 13/10 A301 RMK A01 T01270099  RH  083%=      5-min Rain = 0
KAI1 121031Z 26001KT 13/10 A301 RMK A01 T01270099  RH  083%=      5-min Rain = 0
KAI1 121032Z 26001KT 13/10 A301 RMK A01 T01260098  RH  083%=      5-min Rain = 0
KAI1 121033Z 26001KT 13/10 A301 RMK A01 T01260098  RH  083%=      5-min Rain = 0
KAI1 121034Z 27002KT 13/10 A301 RMK A01 T01260098  RH  083%=      5-min Rain = 0
KAI1 121035Z 27002KT 13/10 A301 RMK A01 T01250097  RH  083%=      5-min Rain = 0
KAI1 121036Z 27002KT 13/10 A301 RMK A01 T01250097  RH  083%=      5-min Rain = 0
KAI1 121037Z 27003KT 13/10 A301 RMK A01 T01250098  RH  084%=      5-min Rain = 0
KAI1 121038Z 27003KT 13/10 A3011 RMK A01 T01250099  RH  084%=      5-min Rain = 0
KAI1 121039Z 27004KT 13/10 A3011 RMK A01 T01260099  RH  084%=      5-min Rain = 0
KAI1 121040Z 27004KT 13/10 A3011 RMK A01 T01260100  RH  084%=      5-min Rain = 0
KAI1 121041Z 26004KT 13/10 A301 RMK A01 T01260100  RH  084%=      5-min Rain = 0
KAI1 121042Z 27004KT 13/10 A301 RMK A01 T01270100  RH  084%=      5-min Rain = 0
KAI1 121043Z 27004KT 13/10 A301 RMK A01 T01280100  RH  083%=      5-min Rain = 0
KAI1 121044Z 27004KT 13/10 A3011 RMK A01 T01280100  RH  083%=      5-min Rain = 0
KAI1 121045Z 27004KT 13/10 A3011 RMK A01 T01260099  RH  084%=      5-min Rain = 0
KAI1 121046Z 28004KT 13/10 A3011 RMK A01 T01250099  RH  084%=      5-min Rain = 0
KAI1 121047Z 28004KT 12/10 A3011 RMK A01 T01240099  RH  085%=      5-min Rain = 0
KAI1 121048Z 28004KT 12/10 A3011 RMK A01 T01240100  RH  085%=      5-min Rain = 0
KAI1 121049Z 28004KT 12/10 A3011 RMK A01 T01240100  RH  085%=      5-min Rain = 0
KAI1 121050Z 27004KT 12/10 A3011 RMK A01 T01240101  RH  086%=      5-min Rain = 0
KAI1 121051Z 27004KT 12/10 A3011 RMK A01 T01240101  RH  086%=      5-min Rain = 0
KAI1 121052Z 27004KT 12/10 A3011 RMK A01 T01240101  RH  086%=      5-min Rain = 0
KAI1 121053Z 27004KT 12/10 A3011 RMK A01 T01240100  RH  086%=      5-min Rain = 0
KAI1 121054Z 27004KT 12/10 A3011 RMK A01 T01240101  RH  086%=      5-min Rain = 0
KAI1 121055Z 27004KT 12/10 A3011 RMK A01 T01240100  RH  086%=      5-min Rain = 0
KAI1 121056Z 27003KT 12/10 A3011 RMK A01 T01240100  RH  085%=      5-min Rain = 0
KAI1 121057Z 27003KT 12/10 A301 RMK A01 T01230099  RH  085%=      5-min Rain = 0
KAI1 121058Z 27003KT 12/10 A3011 RMK A01 T01230099  RH  085%=      5-min Rain = 0
KAI1 121059Z 27003KT 12/10 A3011 RMK A01 T01230100  RH  086%=      5-min Rain = 0
KAI1 121100Z 27003KT 12/10 A3011 RMK A01 T01230100  RH  086%=      5-min Rain = 0
KAI1 121101Z 27002KT 12/10 A3011 RMK A01 T01230101  RH  086%=      5-min Rain = 0
KAI1 121102Z 26002KT 12/10 A3011 RMK A01 T01230100  RH  086%=      5-min Rain = 0
KAI1 121103Z 27002KT 12/10 A3011 RMK A01 T01240100  RH  086%=      5-min Rain = 0
KAI1 121104Z 28002KT 13/10 A3011 RMK A01 T01250100  RH  084%=      5-min Rain = 0
KAI1 121105Z 28002KT 13/10 A3011 RMK A01 T01250100  RH  085%=      5-min Rain = 0
KAI1 121106Z 28002KT 13/10 A3011 RMK A01 T01260100  RH  084%=      5-min Rain = 0
KAI1 121107Z 28002KT 13/10 A3011 RMK A01 T01250099  RH  084%=      5-min Rain = 0
KAI1 121108Z 28002KT 13/10 A3011 RMK A01 T01250098  RH  084%=      5-min Rain = 0
KAI1 121109Z 28002KT 12/10 A3011 RMK A01 T01240098  RH  084%=      5-min Rain = 0
KAI1 121110Z 28002KT 12/10 A3011 RMK A01 T01230097  RH  084%=      5-min Rain = 0
KAI1 121111Z 28002KT 12/10 A3011 RMK A01 T01220096  RH  084%=      5-min Rain = 0
KAI1 121112Z 28002KT 12/10 A3011 RMK A01 T01220096  RH  084%=      5-min Rain = 0
KAI1 121113Z 28002KT 12/10 A3011 RMK A01 T01210096  RH  084%=      5-min Rain = 0
KAI1 121114Z 28002KT 12/10 A3011 RMK A01 T01210096  RH  084%=      5-min Rain = 0
KAI1 121115Z 28002KT 12/10 A3011 RMK A01 T01210096  RH  085%=      5-min Rain = 0
KAI1 121116Z 28002KT 12/10 A3011 RMK A01 T01210097  RH  085%=      5-min Rain = 0
KAI1 121117Z 28001KT 12/10 A3011 RMK A01 T01210097  RH  085%=      5-min Rain = 0
KAI1 121118Z 27001KT 12/10 A3011 RMK A01 T01220097  RH  085%=      5-min Rain = 0
KAI1 121119Z 28001KT 12/10 A3011 RMK A01 T01220096  RH  084%=      5-min Rain = 0
KAI1 121120Z 28001KT 12/10 A3011 RMK A01 T01220096  RH  084%=      5-min Rain = 0
KAI1 121121Z 27001KT 12/10 A3011 RMK A01 T01220095  RH  084%=      5-min Rain = 0
KAI1 121122Z 27001KT 12/10 A3011 RMK A01 T01220095  RH  083%=      5-min Rain = 0
KAI1 121123Z 27001KT 12/10 A3011 RMK A01 T01220095  RH  083%=      5-min Rain = 0
KAI1 121124Z 27001KT 12/10 A3011 RMK A01 T01220096  RH  084%=      5-min Rain = 0
KAI1 121125Z 27001KT 12/10 A3011 RMK A01 T01220096  RH  084%=      5-min Rain = 0
KAI1 121126Z 27001KT 12/10 A3011 RMK A01 T01220096  RH  084%=      5-min Rain = 0
KAI1 121127Z 27001KT 12/10 A3011 RMK A01 T01220096  RH  084%=      5-min Rain = 0
KAI1 121128Z 27001KT 12/10 A3011 RMK A01 T01220097  RH  084%=      5-min Rain = 0
KAI1 121129Z 27001KT 12/10 A3011 RMK A01 T01220097  RH  084%=      5-min Rain = 0
KAI1 121130Z 27001KT 12/10 A3011 RMK A01 T01220097  RH  084%=      5-min Rain = 0
KAI1 121131Z 26001KT 12/10 A3011 RMK A01 T01220097  RH  084%=      5-min Rain = 0
KAI1 121132Z 26001KT 12/10 A3011 RMK A01 T01220096  RH  084%=      5-min Rain = 0
KAI1 121133Z 26001KT 12/10 A3011 RMK A01 T01220096  RH  084%=      5-min Rain = 0
KAI1 121134Z 26001KT 12/10 A3011 RMK A01 T01230096  RH  084%=      5-min Rain = 0
KAI1 121135Z 26001KT 12/10 A3011 RMK A01 T01230095  RH  083%=      5-min Rain = 0
KAI1 121136Z 26001KT 12/10 A3011 RMK A01 T01230096  RH  084%=      5-min Rain = 0
KAI1 121137Z 26001KT 12/10 A3011 RMK A01 T01230097  RH  084%=      5-min Rain = 0
KAI1 121138Z 26001KT 12/10 A3011 RMK A01 T01230097  RH  084%=      5-min Rain = 0
KAI1 121139Z 26001KT 12/10 A3011 RMK A01 T01230097  RH  084%=      5-min Rain = 0
KAI1 121140Z 26001KT 12/10 A3011 RMK A01 T01240097  RH  084%=      5-min Rain = 0
KAI1 121141Z 26001KT 12/10 A3011 RMK A01 T01240097  RH  084%=      5-min Rain = 0
KAI1 121142Z 26001KT 12/10 A3011 RMK A01 T01240098  RH  084%=      5-min Rain = 0
KAI1 121143Z 26001KT 12/10 A3011 RMK A01 T01240099  RH  084%=      5-min Rain = 0
KAI1 121144Z 26001KT 12/10 A3011 RMK A01 T01240099  RH  084%=      5-min Rain = 0
KAI1 121145Z 26001KT 12/10 A3011 RMK A01 T01240099  RH  084%=      5-min Rain = 0
KAI1 121146Z 26001KT 12/10 A3011 RMK A01 T01240099  RH  084%=      5-min Rain = 0
KAI1 121147Z 26001KT 12/10 A301 RMK A01 T01240098  RH  084%=      5-min Rain = 0
KAI1 121148Z 26001KT 12/10 A301 RMK A01 T01240099  RH  084%=      5-min Rain = 0
KAI1 121149Z 26001KT 12/10 A301 RMK A01 T01240098  RH  084%=      5-min Rain = 0
KAI1 121150Z 26001KT 13/10 A301 RMK A01 T01250098  RH  084%=      5-min Rain = 0
KAI1 121151Z 26001KT 13/10 A301 RMK A01 T01250098  RH  084%=      5-min Rain = 0
KAI1 121152Z 26001KT 12/10 A301 RMK A01 T01240098  RH  084%=      5-min Rain = 0
KAI1 121153Z 26001KT 12/10 A301 RMK A01 T01240099  RH  084%=      5-min Rain = 0
KAI1 121154Z 26001KT 13/10 A301 RMK A01 T01250099  RH  084%=      5-min Rain = 0
KAI1 121155Z 26001KT 13/10 A301 RMK A01 T01250099  RH  084%=      5-min Rain = 0
KAI1 121156Z 26001KT 12/10 A301 RMK A01 T01240099  RH  085%=      5-min Rain = 0
KAI1 121157Z 26001KT 13/10 A301 RMK A01 T01250101  RH  085%=      5-min Rain = 0
KAI1 121158Z 26001KT 13/10 A301 RMK A01 T01250101  RH  085%=      5-min Rain = 0
KAI1 121159Z 26001KT 13/10 A301 RMK A01 T01250101  RH  085%=      5-min Rain = 0
KAI1 121200Z 26002KT 13/10 A301 RMK A01 T01250101  RH  085%=      5-min Rain = 0
KAI1 121201Z 26002KT 13/10 A301 RMK A01 T01260100  RH  084%=      5-min Rain = 0
KAI1 121202Z 26002KT 13/10 A301 RMK A01 T01270099  RH  083%=      5-min Rain = 0
KAI1 121203Z 26002KT 13/10 A301 RMK A01 T01270100  RH  083%=      5-min Rain = 0
KAI1 121204Z 26002KT 13/10 A301 RMK A01 T01270100  RH  084%=      5-min Rain = 0
KAI1 121205Z 26002KT 13/10 A301 RMK A01 T01270100  RH  084%=      5-min Rain = 0
KAI1 121206Z 26002KT 13/10 A301 RMK A01 T01270100  RH  084%=      5-min Rain = 0
KAI1 121207Z 26002KT 13/10 A301 RMK A01 T01270100  RH  084%=      5-min Rain = 0
KAI1 121208Z 26002KT 13/10 A301 RMK A01 T01260100  RH  084%=      5-min Rain = 0
KAI1 121209Z 26002KT 13/10 A301 RMK A01 T01260099  RH  084%=      5-min Rain = 0
KAI1 121210Z 26002KT 13/10 A301 RMK A01 T01260099  RH  084%=      5-min Rain = 0
KAI1 121211Z 27002KT 13/10 A301 RMK A01 T01260099  RH  084%=      5-min Rain = 0
KAI1 121212Z 27002KT 13/10 A301 RMK A01 T01260099  RH  084%=      5-min Rain = 0
KAI1 121213Z 27002KT 13/10 A301 RMK A01 T01260100  RH  084%=      5-min Rain = 0
KAI1 121214Z 27002KT 13/10 A301 RMK A01 T01250099  RH  084%=      5-min Rain = 0
KAI1 121215Z 27002KT 13/10 A301 RMK A01 T01260099  RH  084%=      5-min Rain = 0
KAI1 121216Z 27002KT 13/10 A301 RMK A01 T01260100  RH  084%=      5-min Rain = 0
KAI1 121217Z 27002KT 13/10 A301 RMK A01 T01260100  RH  084%=      5-min Rain = 0
KAI1 121218Z 27002KT 13/10 A301 RMK A01 T01260099  RH  084%=      5-min Rain = 0
KAI1 121219Z 27002KT 13/10 A301 RMK A01 T01260099  RH  084%=      5-min Rain = 0
KAI1 121220Z 27003KT 13/10 A301 RMK A01 T01250098  RH  083%=      5-min Rain = 0
KAI1 121221Z 27003KT 13/10 A301 RMK A01 T01260098  RH  083%=      5-min Rain = 0
KAI1 121222Z 27003KT 13/10 A301 RMK A01 T01250098  RH  084%=      5-min Rain = 0
KAI1 121223Z 27003KT 13/10 A301 RMK A01 T01250098  RH  084%=      5-min Rain = 0
KAI1 121224Z 27003KT 13/10 A301 RMK A01 T01250097  RH  084%=      5-min Rain = 0
KAI1 121225Z 27003KT 12/10 A301 RMK A01 T01240096  RH  083%=      5-min Rain = 0
KAI1 121226Z 27003KT 12/10 A301 RMK A01 T01240096  RH  083%=      5-min Rain = 0
KAI1 121227Z 27003KT 12/10 A301 RMK A01 T01230096  RH  084%=      5-min Rain = 0
KAI1 121228Z 27003KT 12/10 A3011 RMK A01 T01230096  RH  084%=      5-min Rain = 0
KAI1 121229Z 27003KT 12/10 A3011 RMK A01 T01230096  RH  084%=      5-min Rain = 0
KAI1 121230Z 27003KT 12/10 A3011 RMK A01 T01230096  RH  083%=      5-min Rain = 0
KAI1 121231Z 27003KT 12/10 A3011 RMK A01 T01220095  RH  084%=      5-min Rain = 0
KAI1 121232Z 26002KT 12/10 A3011 RMK A01 T01220096  RH  084%=      5-min Rain = 0
KAI1 121233Z 26002KT 12/10 A3011 RMK A01 T01220096  RH  084%=      5-min Rain = 0
KAI1 121234Z 26002KT 12/10 A3011 RMK A01 T01220096  RH  084%=      5-min Rain = 0
KAI1 121235Z 26002KT 12/10 A3011 RMK A01 T01220097  RH  085%=      5-min Rain = 0
KAI1 121236Z 25002KT 12/10 A3011 RMK A01 T01220096  RH  084%=      5-min Rain = 0
KAI1 121237Z 25002KT 12/10 A3011 RMK A01 T01220095  RH  084%=      5-min Rain = 0
KAI1 121238Z 25002KT 12/10 A3011 RMK A01 T01220095  RH  084%=      5-min Rain = 0
KAI1 121239Z 25002KT 12/10 A3011 RMK A01 T01220096  RH  084%=      5-min Rain = 0
KAI1 121240Z 26002KT 12/10 A3011 RMK A01 T01230097  RH  084%=      5-min Rain = 0
KAI1 121241Z 26002KT 12/10 A3011 RMK A01 T01230097  RH  084%=      5-min Rain = 0
KAI1 121242Z 26002KT 12/10 A3011 RMK A01 T01230097  RH  084%=      5-min Rain = 0
KAI1 121243Z 26002KT 12/10 A3011 RMK A01 T01240096  RH  083%=      5-min Rain = 0
KAI1 121244Z 26002KT 12/10 A3011 RMK A01 T01240095  RH  082%=      5-min Rain = 0
KAI1 121245Z 26002KT 12/10 A3011 RMK A01 T01240096  RH  083%=      5-min Rain = 0
KAI1 121246Z 26002KT 13/10 A3011 RMK A01 T01250097  RH  083%=      5-min Rain = 0
KAI1 121247Z 27002KT 13/10 A3011 RMK A01 T01260098  RH  083%=      5-min Rain = 0
KAI1 121248Z 27002KT 13/10 A3011 RMK A01 T01260098  RH  083%=      5-min Rain = 0
KAI1 121249Z 27002KT 13/10 A3011 RMK A01 T01260099  RH  083%=      5-min Rain = 0
KAI1 121250Z 27002KT 13/10 A3011 RMK A01 T01270098  RH  083%=      5-min Rain = 0
KAI1 121251Z 27002KT 13/10 A3011 RMK A01 T01280098  RH  082%=      5-min Rain = 0
KAI1 121252Z 27002KT 13/10 A3011 RMK A01 T01280098  RH  082%=      5-min Rain = 0
KAI1 121253Z 26002KT 13/10 A3011 RMK A01 T01280098  RH  082%=      5-min Rain = 0
KAI1 121254Z 26002KT 13/10 A3011 RMK A01 T01290098  RH  082%=      5-min Rain = 0
KAI1 121255Z 26001KT 13/10 A3011 RMK A01 T01290098  RH  081%=      5-min Rain = 0
KAI1 121256Z 25001KT 13/10 A3011 RMK A01 T01300099  RH  081%=      5-min Rain = 0
KAI1 121257Z 25001KT 13/10 A3011 RMK A01 T01310099  RH  081%=      5-min Rain = 0
KAI1 121258Z 25001KT 13/10 A3011 RMK A01 T01320099  RH  080%=      5-min Rain = 0
KAI1 121259Z 25001KT 13/10 A3011 RMK A01 T01330099  RH  080%=      5-min Rain = 0
KAI1 121300Z 25001KT 13/10 A3011 RMK A01 T01330099  RH  080%=      5-min Rain = 0
KAI1 121301Z 25001KT 14/10 A3011 RMK A01 T01350100  RH  079%=      5-min Rain = 0
KAI1 121302Z 25001KT 14/10 A3011 RMK A01 T01360100  RH  079%=      5-min Rain = 0
KAI1 121303Z 25001KT 14/10 A3011 RMK A01 T01370099  RH  078%=      5-min Rain = 0
KAI1 121304Z 24001KT 14/10 A3011 RMK A01 T01370099  RH  078%=      5-min Rain = 0
KAI1 121305Z 23001KT 14/10 A3011 RMK A01 T01380100  RH  078%=      5-min Rain = 0
KAI1 121306Z 23001KT 14/10 A3011 RMK A01 T01380101  RH  078%=      5-min Rain = 0
KAI1 121307Z 22001KT 14/10 A3011 RMK A01 T01370101  RH  079%=      5-min Rain = 0
KAI1 121308Z 22001KT 14/10 A3011 RMK A01 T01380102  RH  079%=      5-min Rain = 0
KAI1 121309Z 21001KT 14/10 A3011 RMK A01 T01370102  RH  079%=      5-min Rain = 0
KAI1 121310Z 21001KT 14/10 A3011 RMK A01 T01380102  RH  079%=      5-min Rain = 0
KAI1 121311Z 21001KT 14/10 A3011 RMK A01 T01380103  RH  079%=      5-min Rain = 0
KAI1 121312Z 21001KT 14/10 A3011 RMK A01 T01390103  RH  079%=      5-min Rain = 0
KAI1 121313Z 21001KT 14/10 A3011 RMK A01 T01400104  RH  079%=      5-min Rain = 0
KAI1 121314Z 21001KT 14/11 A3011 RMK A01 T01410105  RH  079%=      5-min Rain = 0
KAI1 121315Z 21001KT 14/11 A3011 RMK A01 T01430105  RH  078%=      5-min Rain = 0
KAI1 121316Z 21001KT 14/11 A3011 RMK A01 T01440106  RH  078%=      5-min Rain = 0
KAI1 121317Z 20001KT 15/11 A3011 RMK A01 T01450106  RH  077%=      5-min Rain = 0
KAI1 121318Z 20001KT 15/11 A3011 RMK A01 T01450106  RH  077%=      5-min Rain = 0
KAI1 121319Z 19001KT 15/11 A3011 RMK A01 T01450107  RH  078%=      5-min Rain = 0
KAI1 121320Z 19001KT 15/11 A3011 RMK A01 T01450107  RH  078%=      5-min Rain = 0
KAI1 121321Z 19001KT 15/11 A3011 RMK A01 T01450107  RH  078%=      5-min Rain = 0
KAI1 121322Z 19001KT 15/11 A3011 RMK A01 T01460107  RH  078%=      5-min Rain = 0
KAI1 121323Z 19001KT 15/11 A3011 RMK A01 T01470108  RH  077%=      5-min Rain = 0
KAI1 121324Z 19001KT 15/11 A3011 RMK A01 T01480109  RH  077%=      5-min Rain = 0
KAI1 121325Z 20001KT 15/11 A3011 RMK A01 T01500111  RH  078%=      5-min Rain = 0
KAI1 121326Z 20001KT 15/11 A3011 RMK A01 T01520111  RH  076%=      5-min Rain = 0
KAI1 121327Z 20001KT 15/11 A3011 RMK A01 T01540112  RH  076%=      5-min Rain = 0
KAI1 121328Z 21001KT 16/11 A3011 RMK A01 T01560112  RH  075%=      5-min Rain = 0
KAI1 121329Z 21001KT 16/11 A3011 RMK A01 T01570110  RH  073%=      5-min Rain = 0
KAI1 121330Z 21001KT 16/11 A3011 RMK A01 T01580109  RH  073%=      5-min Rain = 0
KAI1 121331Z 21001KT 16/11 A3011 RMK A01 T01590108  RH  072%=      5-min Rain = 0
KAI1 121332Z 22001KT 16/11 A3011 RMK A01 T01600108  RH  071%=      5-min Rain = 0
KAI1 121333Z 21001KT 16/11 A3011 RMK A01 T01600105  RH  070%=      5-min Rain = 0
KAI1 121334Z 21002KT 16/10 A3011 RMK A01 T01610104  RH  069%=      5-min Rain = 0
KAI1 121335Z 21002KT 16/10 A3011 RMK A01 T01610104  RH  069%=      5-min Rain = 0
KAI1 121336Z 22002KT 16/10 A3011 RMK A01 T01620104  RH  068%=      5-min Rain = 0
KAI1 121337Z 22002KT 16/11 A3011 RMK A01 T01630108  RH  070%=      5-min Rain = 0
KAI1 121338Z 21001KT 16/11 A3011 RMK A01 T01640108  RH  070%=      5-min Rain = 0
KAI1 121339Z 20002KT 16/11 A3011 RMK A01 T01640107  RH  069%=      5-min Rain = 0
KAI1 121340Z 19001KT 17/11 A3011 RMK A01 T01650108  RH  069%=      5-min Rain = 0
KAI1 121341Z 18001KT 17/11 A3011 RMK A01 T01650110  RH  069%=      5-min Rain = 0
KAI1 121342Z 19001KT 17/11 A3011 RMK A01 T01660110  RH  069%=      5-min Rain = 0
KAI1 121343Z 19001KT 17/11 A3011 RMK A01 T01670110  RH  069%=      5-min Rain = 0
KAI1 121344Z 18001KT 17/11 A3011 RMK A01 T01690114  RH  070%=      5-min Rain = 0
KAI1 121345Z 19001KT 17/11 A3011 RMK A01 T01700114  RH  070%=      5-min Rain = 0
KAI1 121346Z 18002KT 17/11 A3011 RMK A01 T01720114  RH  069%=      5-min Rain = 0
KAI1 121347Z 17002KT 17/12 A3011 RMK A01 T01730117  RH  069%=      5-min Rain = 0
KAI1 121348Z 17002KT 18/12 A3011 RMK A01 T01760119  RH  069%=      5-min Rain = 0
KAI1 121349Z 18002KT 18/12 A3011 RMK A01 T01780122  RH  069%=      5-min Rain = 0
KAI1 121350Z 19003KT 18/12 A3011 RMK A01 T01800119  RH  067%=      5-min Rain = 0
KAI1 121351Z 19003KT 18/12 A3011 RMK A01 T01810117  RH  066%=      5-min Rain = 0
KAI1 121352Z 18002KT 18/11 A3011 RMK A01 T01810114  RH  065%=      5-min Rain = 0
KAI1 121353Z 19003KT 18/12 A3011 RMK A01 T01820116  RH  065%=      5-min Rain = 0
KAI1 121354Z 18003KT 18/12 A3011 RMK A01 T01830115  RH  064%=      5-min Rain = 0
KAI1 121355Z 18003KT 18/11 A3011 RMK A01 T01830113  RH  064%=      5-min Rain = 0
KAI1 121356Z 18003KT 18/11 A3011 RMK A01 T01840111  RH  063%=      5-min Rain = 0
KAI1 121357Z 18003KT 18/11 A3011 RMK A01 T01830112  RH  063%=      5-min Rain = 0
KAI1 121358Z 18003KT 18/11 A3011 RMK A01 T01840113  RH  064%=      5-min Rain = 0
KAI1 121359Z 17003KT 18/12 A3011 RMK A01 T01830117  RH  065%=      5-min Rain = 0
KAI1 121400Z 18003KT 18/12 A3011 RMK A01 T01840117  RH  065%=      5-min Rain = 0
KAI1 121401Z 18003KT 18/12 A3011 RMK A01 T01840116  RH  064%=      5-min Rain = 0
KAI1 121402Z 18003KT 19/12 A3011 RMK A01 T01850115  RH  064%=      5-min Rain = 0
KAI1 121403Z 18004KT 19/12 A3011 RMK A01 T01850117  RH  064%=      5-min Rain = 0
KAI1 121404Z 17003KT 19/12 A3011 RMK A01 T01850117  RH  064%=      5-min Rain = 0
KAI1 121405Z 18003KT 19/12 A3011 RMK A01 T01860117  RH  064%=      5-min Rain = 0
KAI1 121406Z 18003KT 19/12 A3011 RMK A01 T01870118  RH  064%=      5-min Rain = 0
KAI1 121407Z 17003KT 19/12 A3011 RMK A01 T01880118  RH  064%=      5-min Rain = 0
KAI1 121408Z 17003KT 19/12 A3011 RMK A01 T01890118  RH  063%=      5-min Rain = 0
KAI1 121409Z 17003KT 19/12 A3011 RMK A01 T01900119  RH  063%=      5-min Rain = 0
KAI1 121410Z 18003KT 19/12 A3011 RMK A01 T01910120  RH  063%=      5-min Rain = 0
KAI1 121411Z 17004KT 19/12 A3011 RMK A01 T01920119  RH  063%=      5-min Rain = 0
KAI1 121412Z 18003KT 19/12 A3011 RMK A01 T01930118  RH  062%=      5-min Rain = 0
KAI1 121413Z 18003KT 19/12 A3011 RMK A01 T01940119  RH  062%=      5-min Rain = 0
KAI1 121414Z 18004KT 20/12 A3011 RMK A01 T01950116  RH  060%=      5-min Rain = 0
KAI1 121415Z 18004KT 20/12 A3011 RMK A01 T01950116  RH  060%=      5-min Rain = 0
KAI1 121416Z 18004KT 20/12 A3011 RMK A01 T01950116  RH  060%=      5-min Rain = 0
KAI1 121417Z 18004KT 20/12 A3011 RMK A01 T01960116  RH  060%=      5-min Rain = 0
KAI1 121418Z 18004KT 20/11 A3011 RMK A01 T01970114  RH  059%=      5-min Rain = 0
KAI1 121419Z 18004KT 20/11 A3011 RMK A01 T01980113  RH  058%=      5-min Rain = 0
KAI1 121420Z 18004KT 20/11 A3011 RMK A01 T01980113  RH  058%=      5-min Rain = 0
KAI1 121421Z 18004KT 20/11 A3011 RMK A01 T01990114  RH  058%=      5-min Rain = 0
KAI1 121422Z 19004KT 20/11 A3011 RMK A01 T02000113  RH  057%=      5-min Rain = 0
KAI1 121423Z 19004KT 20/11 A3011 RMK A01 T02010111  RH  056%=      5-min Rain = 0
KAI1 121424Z 20004KT 20/11 A3011 RMK A01 T02020109  RH  055%=      5-min Rain = 0
KAI1 121425Z 18003KT 20/11 A3011 RMK A01 T02020111  RH  056%=      5-min Rain = 0
KAI1 121426Z 17004KT 20/12 A3011 RMK A01 T02030115  RH  057%=      5-min Rain = 0
KAI1 121427Z 19004KT 20/11 A3011 RMK A01 T02040113  RH  056%=      5-min Rain = 0
KAI1 121428Z 18003KT 21/11 A3011 RMK A01 T02050114  RH  056%=      5-min Rain = 0
KAI1 121429Z 18004KT 21/12 A3011 RMK A01 T02060118  RH  057%=      5-min Rain = 0
KAI1 121430Z 20005KT 21/12 A3011 RMK A01 T02070115  RH  056%=      5-min Rain = 0
KAI1 121431Z 20005KT 21/11 A3011 RMK A01 T02070109  RH  053%=      5-min Rain = 0
KAI1 121432Z 19005KT 21/11 A3011 RMK A01 T02070110  RH  054%=      5-min Rain = 0
KAI1 121433Z 20005KT 21/11 A3011 RMK A01 T02080110  RH  053%=      5-min Rain = 0
KAI1 121434Z 19006KT 21/11 A3011 RMK A01 T02080108  RH  053%=      5-min Rain = 0
KAI1 121435Z 20004KT 21/11 A3011 RMK A01 T02080110  RH  053%=      5-min Rain = 0
KAI1 121436Z 19005KT 21/11 A3011 RMK A01 T02080112  RH  054%=      5-min Rain = 0
KAI1 121437Z 20005KT 21/11 A3011 RMK A01 T02090111  RH  053%=      5-min Rain = 0
KAI1 121438Z 19005KT 21/11 A3011 RMK A01 T02100109  RH  052%=      5-min Rain = 0
KAI1 121439Z 19005KT 21/11 A3011 RMK A01 T02100111  RH  053%=      5-min Rain = 0
KAI1 121440Z 19005KT 21/11 A3011 RMK A01 T02100112  RH  053%=      5-min Rain = 0
KAI1 121441Z 20005KT 21/11 A3011 RMK A01 T02100112  RH  053%=      5-min Rain = 0
KAI1 121442Z 21005KT 21/11 A3011 RMK A01 T02110109  RH  052%=      5-min Rain = 0
KAI1 121443Z 21006KT 21/11 A301 RMK A01 T02120109  RH  052%=      5-min Rain = 0
KAI1 121444Z 20006KT 22/11 A301 RMK A01 T02150111  RH  052%=      5-min Rain = 0
KAI1 121445Z 21005KT 22/11 A301 RMK A01 T02160110  RH  051%=      5-min Rain = 0
KAI1 121446Z 19005KT 22/11 A301 RMK A01 T02160111  RH  051%=      5-min Rain = 0
KAI1 121447Z 19005KT 22/11 A301 RMK A01 T02160110  RH  051%=      5-min Rain = 0
KAI1 121448Z 18006KT 22/11 A301 RMK A01 T02170111  RH  051%=      5-min Rain = 0
KAI1 121449Z 18005KT 22/11 A301 RMK A01 T02170112  RH  051%=      5-min Rain = 0
KAI1 121450Z 19006KT 22/11 A301 RMK A01 T02180112  RH  051%=      5-min Rain = 0
KAI1 121451Z 19006KT 22/11 A301 RMK A01 T02190111  RH  050%=      5-min Rain = 0
KAI1 121452Z 20004KT 22/11 A301 RMK A01 T02180113  RH  051%=      5-min Rain = 0
KAI1 121453Z 18005KT 22/11 A301 RMK A01 T02190112  RH  051%=      5-min Rain = 0
KAI1 121454Z 18006KT 22/11 A301 RMK A01 T02190112  RH  051%=      5-min Rain = 0
KAI1 121455Z 18006KT 22/11 A301 RMK A01 T02200111  RH  050%=      5-min Rain = 0
KAI1 121456Z 20006KT 22/11 A301 RMK A01 T02210113  RH  050%=      5-min Rain = 0
KAI1 121457Z 19006KT 22/11 A301 RMK A01 T02230111  RH  049%=      5-min Rain = 0
KAI1 121458Z 19007KT 23/11 A301 RMK A01 T02250109  RH  048%=      5-min Rain = 0
KAI1 121459Z 18006KT 23/11 A301 RMK A01 T02260109  RH  048%=      5-min Rain = 0
KAI1 121500Z 18007KT 23/11 A301 RMK A01 T02290110  RH  047%=      5-min Rain = 0
KAI1 121501Z 18006KT 23/11 A301 RMK A01 T02290105  RH  045%=      5-min Rain = 0
KAI1 121502Z 18006KT 23/11 A301 RMK A01 T02290108  RH  046%=      5-min Rain = 0
KAI1 121503Z 19007KT 23/11 A301 RMK A01 T02300106  RH  045%=      5-min Rain = 0
KAI1 121504Z 18007KT 23/11 A301 RMK A01 T02300106  RH  045%=      5-min Rain = 0
KAI1 121505Z 18007KT 23/11 A301 RMK A01 T02300106  RH  045%=      5-min Rain = 0
KAI1 121506Z 19006KT 23/11 A301 RMK A01 T02290107  RH  046%=      5-min Rain = 0
KAI1 121507Z 18007KT 23/11 A301 RMK A01 T02300111  RH  047%=      5-min Rain = 0
KAI1 121508Z 18007KT 23/11 A301 RMK A01 T02310108  RH  046%=      5-min Rain = 0
KAI1 121509Z 18006KT 23/11 A301 RMK A01 T02310110  RH  047%=      5-min Rain = 0
KAI1 121510Z 18006KT 23/11 A301 RMK A01 T02320110  RH  046%=      5-min Rain = 0
KAI1 121511Z 19006KT 23/11 A301 RMK A01 T02330109  RH  046%=      5-min Rain = 0
KAI1 121512Z 19006KT 23/11 A301 RMK A01 T02330110  RH  046%=      5-min Rain = 0
KAI1 121513Z 18005KT 23/12 A301 RMK A01 T02330118  RH  048%=      5-min Rain = 0
KAI1 121514Z 18005KT 23/12 A301 RMK A01 T02330119  RH  049%=      5-min Rain = 0
KAI1 121515Z 18006KT 23/12 A301 RMK A01 T02340118  RH  048%=      5-min Rain = 0
KAI1 121516Z 18007KT 24/11 A301 RMK A01 T02350111  RH  046%=      5-min Rain = 0
KAI1 121517Z 20007KT 24/11 A301 RMK A01 T02350108  RH  045%=      5-min Rain = 0
KAI1 121518Z 19006KT 23/11 A301 RMK A01 T02340110  RH  046%=      5-min Rain = 0
KAI1 121519Z 19004KT 23/11 A301 RMK A01 T02340112  RH  046%=      5-min Rain = 0
KAI1 121520Z 20007KT 24/11 A301 RMK A01 T02360112  RH  046%=      5-min Rain = 0
KAI1 121521Z 20007KT 24/11 A301 RMK A01 T02360109  RH  045%=      5-min Rain = 0
KAI1 121522Z 20006KT 24/11 A301 RMK A01 T02350111  RH  046%=      5-min Rain = 0
KAI1 121523Z 21006KT 24/11 A301 RMK A01 T02350112  RH  046%=      5-min Rain = 0
KAI1 121524Z 19006KT 24/11 A301 RMK A01 T02370114  RH  046%=      5-min Rain = 0
KAI1 121525Z 21006KT 24/11 A301 RMK A01 T02380114  RH  045%=      5-min Rain = 0
KAI1 121526Z 21007KT 24/12 A301 RMK A01 T02390115  RH  046%=      5-min Rain = 0
KAI1 121527Z 21006KT 24/11 A301 RMK A01 T02400114  RH  045%=      5-min Rain = 0
KAI1 121528Z 20006KT 24/11 A301 RMK A01 T02390114  RH  046%=      5-min Rain = 0
KAI1 121529Z 19006KT 24/12 A301 RMK A01 T02390115  RH  046%=      5-min Rain = 0
KAI1 121530Z 18007KT 24/11 A301 RMK A01 T02400114  RH  045%=      5-min Rain = 0
KAI1 121531Z 19007KT 24/12 A301 RMK A01 T02400115  RH  045%=      5-min Rain = 0
KAI1 121532Z 19006KT 24/12 A301 RMK A01 T02410119  RH  046%=      5-min Rain = 0
KAI1 121533Z 19006KT 24/12 A301 RMK A01 T02430116  RH  045%=      5-min Rain = 0
KAI1 121534Z 19007KT 24/12 A301 RMK A01 T02420117  RH  045%=      5-min Rain = 0
KAI1 121535Z 19008KT 24/12 A301 RMK A01 T02430116  RH  045%=      5-min Rain = 0
KAI1 121536Z 19007KT 24/12 A301 RMK A01 T02440115  RH  045%=      5-min Rain = 0
KAI1 121537Z 19007KT 24/12 A301 RMK A01 T02440116  RH  045%=      5-min Rain = 0
KAI1 121538Z 20006KT 24/12 A301 RMK A01 T02430116  RH  045%=      5-min Rain = 0
KAI1 121539Z 21007KT 24/12 A301 RMK A01 T02440115  RH  045%=      5-min Rain = 0
KAI1 121540Z 20005KT 25/11 A301 RMK A01 T02450114  RH  044%=      5-min Rain = 0
KAI1 121541Z 21005KT 25/12 A301 RMK A01 T02460115  RH  044%=      5-min Rain = 0
KAI1 121542Z 19005KT 25/11 A301 RMK A01 T02470114  RH  043%=      5-min Rain = 0
KAI1 121543Z 20006KT 25/12 A301 RMK A01 T02480118  RH  044%=      5-min Rain = 0
KAI1 121544Z 19006KT 25/12 A301 RMK A01 T02500115  RH  043%=      5-min Rain = 0
KAI1 121545Z 19006KT 25/12 A301 RMK A01 T02500115  RH  043%=      5-min Rain = 0
KAI1 121546Z 19005KT 25/11 A301 RMK A01 T02490114  RH  043%=      5-min Rain = 0
KAI1 121547Z 20007KT 25/11 A301 RMK A01 T02480113  RH  043%=      5-min Rain = 0
KAI1 121548Z 21005KT 25/11 A301 RMK A01 T02480112  RH  042%=      5-min Rain = 0
KAI1 121549Z 19005KT 25/11 A301 RMK A01 T02490111  RH  042%=      5-min Rain = 0
KAI1 121550Z 20005KT 25/11 A301 RMK A01 T02490112  RH  042%=      5-min Rain = 0
KAI1 121551Z 20006KT 25/12 A301 RMK A01 T02500115  RH  043%=      5-min Rain = 0
KAI1 121552Z 19006KT 25/12 A301 RMK A01 T02520115  RH  042%=      5-min Rain = 0
KAI1 121553Z 18006KT 25/12 A301 RMK A01 T02540115  RH  042%=      5-min Rain = 0
KAI1 121554Z 19006KT 25/12 A301 RMK A01 T02540115  RH  042%=      5-min Rain = 0
KAI1 121555Z 20007KT 26/12 A301 RMK A01 T02550115  RH  041%=      5-min Rain = 0
KAI1 121556Z 19005KT 25/11 A301 RMK A01 T02540113  RH  041%=      5-min Rain = 0
KAI1 121557Z 20006KT 25/11 A301 RMK A01 T02520114  RH  042%=      5-min Rain = 0
KAI1 121558Z 21006KT 25/12 A301 RMK A01 T02530115  RH  042%=      5-min Rain = 0
KAI1 121559Z 19007KT 26/12 A301 RMK A01 T02550115  RH  042%=      5-min Rain = 0
KAI1 121600Z 19005KT 26/11 A301 RMK A01 T02560114  RH  041%=      5-min Rain = 0
KAI1 121601Z 21008KT 26/11 A301 RMK A01 T02560112  RH  041%=      5-min Rain = 0
KAI1 121602Z 22007KT 26/11 A301 RMK A01 T02560110  RH  040%=      5-min Rain = 0
KAI1 121603Z 23005KT 26/11 A301 RMK A01 T02550112  RH  041%=      5-min Rain = 0
KAI1 121604Z 21004KT 26/11 A301 RMK A01 T02550112  RH  041%=      5-min Rain = 0
KAI1 121605Z 19007KT 26/11 A301 RMK A01 T02560113  RH  041%=      5-min Rain = 0
KAI1 121606Z 22006KT 26/12 A301 RMK A01 T02570115  RH  041%=      5-min Rain = 0
KAI1 121607Z 22004KT 26/12 A301 RMK A01 T02570115  RH  041%=      5-min Rain = 0
KAI1 121608Z 20007KT 26/11 A301 RMK A01 T02580113  RH  040%=      5-min Rain = 0
KAI1 121609Z 21006KT 26/11 A301 RMK A01 T02580113  RH  040%=      5-min Rain = 0
KAI1 121610Z 20005KT 26/12 A301 RMK A01 T02600116  RH  041%=      5-min Rain = 0
KAI1 121611Z 21006KT 26/12 A301 RMK A01 T02620115  RH  040%=      5-min Rain = 0
KAI1 121612Z 22006KT 26/11 A301 RMK A01 T02630112  RH  039%=      5-min Rain = 0
KAI1 121613Z 21005KT 26/11 A3009 RMK A01 T02630113  RH  039%=      5-min Rain = 0
KAI1 121614Z 20006KT 26/12 A3009 RMK A01 T02620116  RH  040%=      5-min Rain = 0
KAI1 121615Z 21008KT 26/11 A3009 RMK A01 T02640114  RH  039%=      5-min Rain = 0
KAI1 121616Z 23005KT 27/11 A3009 RMK A01 T02650113  RH  039%=      5-min Rain = 0
KAI1 121617Z 21005KT 27/11 A3009 RMK A01 T02650111  RH  038%=      5-min Rain = 0
KAI1 121618Z 21007KT 26/11 A3009 RMK A01 T02640112  RH  038%=      5-min Rain = 0
KAI1 121619Z 22007KT 26/11 A3009 RMK A01 T02630113  RH  039%=      5-min Rain = 0
KAI1 121620Z 22007KT 26/11 A3009 RMK A01 T02630112  RH  039%=      5-min Rain = 0
KAI1 121621Z 21006KT 26/11 A3009 RMK A01 T02630114  RH  039%=      5-min Rain = 0
KAI1 121622Z 21006KT 26/12 A3009 RMK A01 T02630117  RH  040%=      5-min Rain = 0
KAI1 121623Z 19006KT 27/11 A3009 RMK A01 T02660114  RH  039%=      5-min Rain = 0
KAI1 121624Z 19005KT 27/11 A3009 RMK A01 T02650114  RH  039%=      5-min Rain = 0
KAI1 121625Z 21007KT 27/11 A3009 RMK A01 T02650114  RH  039%=      5-min Rain = 0
KAI1 121626Z 23006KT 27/12 A3009 RMK A01 T02660115  RH  039%=      5-min Rain = 0
KAI1 121627Z 23005KT 27/12 A3009 RMK A01 T02660115  RH  039%=      5-min Rain = 0
KAI1 121628Z 22005KT 27/12 A3009 RMK A01 T02670120  RH  040%=      5-min Rain = 0
KAI1 121629Z 20006KT 27/12 A3009 RMK A01 T02700116  RH  038%=      5-min Rain = 0
KAI1 121630Z 17006KT 27/12 A3009 RMK A01 T02720115  RH  038%=      5-min Rain = 0
KAI1 121631Z 19007KT 27/12 A3009 RMK A01 T02710116  RH  038%=      5-min Rain = 0
KAI1 121632Z 19005KT 27/11 A3009 RMK A01 T02700112  RH  037%=      5-min Rain = 0
KAI1 121633Z 17006KT 27/12 A3009 RMK A01 T02680116  RH  039%=      5-min Rain = 0
KAI1 121634Z 16005KT 27/12 A3009 RMK A01 T02690118  RH  039%=      5-min Rain = 0
KAI1 121635Z 18006KT 27/12 A3009 RMK A01 T02710121  RH  039%=      5-min Rain = 0
KAI1 121636Z 18007KT 27/12 A3009 RMK A01 T02730118  RH  038%=      5-min Rain = 0
KAI1 121637Z 17007KT 28/12 A3009 RMK A01 T02750123  RH  039%=      5-min Rain = 0
KAI1 121638Z 19006KT 27/12 A3009 RMK A01 T02740118  RH  038%=      5-min Rain = 0
KAI1 121639Z 19007KT 27/12 A3008 RMK A01 T02740115  RH  037%=      5-min Rain = 0
KAI1 121640Z 19007KT 27/11 A3009 RMK A01 T02710114  RH  038%=      5-min Rain = 0
KAI1 121641Z 19005KT 27/12 A3009 RMK A01 T02710116  RH  038%=      5-min Rain = 0
KAI1 121642Z 19006KT 27/12 A3009 RMK A01 T02710117  RH  038%=      5-min Rain = 0
KAI1 121643Z 20007KT 27/11 A3008 RMK A01 T02740114  RH  037%=      5-min Rain = 0
KAI1 121644Z 20005KT 27/11 A3009 RMK A01 T02740114  RH  037%=      5-min Rain = 0
KAI1 121645Z 20004KT 27/11 A3009 RMK A01 T02740113  RH  037%=      5-min Rain = 0
KAI1 121646Z 18004KT 28/11 A3008 RMK A01 T02750114  RH  037%=      5-min Rain = 0
KAI1 121647Z 20006KT 28/12 A3008 RMK A01 T02770117  RH  037%=      5-min Rain = 0
KAI1 121648Z 19006KT 28/12 A3008 RMK A01 T02780116  RH  037%=      5-min Rain = 0
KAI1 121649Z 20006KT 28/12 A3008 RMK A01 T02790120  RH  037%=      5-min Rain = 0
KAI1 121650Z 18005KT 28/12 A3008 RMK A01 T02820118  RH  036%=      5-min Rain = 0
KAI1 121651Z 18004KT 28/12 A3008 RMK A01 T02820120  RH  037%=      5-min Rain = 0
KAI1 121652Z 19006KT 28/12 A3008 RMK A01 T02820124  RH  038%=      5-min Rain = 0
KAI1 121653Z 21005KT 28/12 A3008 RMK A01 T02810118  RH  036%=      5-min Rain = 0
KAI1 121654Z 21004KT 28/12 A3008 RMK A01 T02800117  RH  036%=      5-min Rain = 0
KAI1 121655Z 24006KT 28/12 A3008 RMK A01 T02810119  RH  037%=      5-min Rain = 0
KAI1 121656Z 23007KT 28/11 A3008 RMK A01 T02820114  RH  035%=      5-min Rain = 0
KAI1 121657Z 22005KT 28/11 A3008 RMK A01 T02820111  RH  035%=      5-min Rain = 0
KAI1 121658Z 21004KT 28/11 A3008 RMK A01 T02810110  RH  035%=      5-min Rain = 0
KAI1 121659Z 22002KT 28/11 A3008 RMK A01 T02800110  RH  035%=      5-min Rain = 0
KAI1 121700Z 21003KT 28/11 A3008 RMK A01 T02800111  RH  035%=      5-min Rain = 0
KAI1 121701Z 23006KT 28/11 A3008 RMK A01 T02800114  RH  035%=      5-min Rain = 0
KAI1 121702Z 23004KT 28/12 A3008 RMK A01 T02810115  RH  036%=      5-min Rain = 0
KAI1 121703Z 24004KT 28/12 A3008 RMK A01 T02820119  RH  036%=      5-min Rain = 0
KAI1 121704Z 25003KT 28/12 A3008 RMK A01 T02840117  RH  036%=      5-min Rain = 0
KAI1 121705Z 22005KT 29/12 A3008 RMK A01 T02850119  RH  036%=      5-min Rain = 0
KAI1 121706Z 25006KT 29/12 A3008 RMK A01 T02870118  RH  035%=      5-min Rain = 0
KAI1 121707Z 26005KT 29/11 A3008 RMK A01 T02880113  RH  034%=      5-min Rain = 0
KAI1 121708Z 25004KT 29/11 A3008 RMK A01 T02870110  RH  033%=      5-min Rain = 0
KAI1 121709Z 25003KT 29/11 A3008 RMK A01 T02860110  RH  034%=      5-min Rain = 0
KAI1 121710Z 26003KT 29/11 A3008 RMK A01 T02850109  RH  034%=      5-min Rain = 0
KAI1 121711Z 21004KT 28/11 A3008 RMK A01 T02840112  RH  034%=      5-min Rain = 0
KAI1 121712Z 20006KT 29/12 A3007 RMK A01 T02850115  RH  035%=      5-min Rain = 0
KAI1 121713Z 20005KT 29/12 A3007 RMK A01 T02850116  RH  035%=      5-min Rain = 0
KAI1 121714Z 20006KT 29/11 A3007 RMK A01 T02860113  RH  034%=      5-min Rain = 0
KAI1 121715Z 23006KT 29/11 A3007 RMK A01 T02870110  RH  033%=      5-min Rain = 0
KAI1 121716Z 23005KT 29/11 A3007 RMK A01 T02870106  RH  032%=      5-min Rain = 0
KAI1 121717Z 24002KT 29/11 A3007 RMK A01 T02880107  RH  033%=      5-min Rain = 0
KAI1 121718Z 24003KT 29/11 A3007 RMK A01 T02870108  RH  033%=      5-min Rain = 0
KAI1 121719Z 26002KT 29/11 A3007 RMK A01 T02880110  RH  033%=      5-min Rain = 0
KAI1 121720Z 25005KT 29/12 A3007 RMK A01 T02900118  RH  034%=      5-min Rain = 0
KAI1 121721Z 26006KT 29/12 A3007 RMK A01 T02930116  RH  033%=      5-min Rain = 0
KAI1 121722Z 26006KT 29/11 A3007 RMK A01 T02940111  RH  032%=      5-min Rain = 0
KAI1 121723Z 22005KT 29/11 A3007 RMK A01 T02920107  RH  032%=      5-min Rain = 0
KAI1 121724Z 22005KT 29/11 A3007 RMK A01 T02910107  RH  032%=      5-min Rain = 0
KAI1 121725Z 26003KT 29/11 A3007 RMK A01 T02920111  RH  033%=      5-min Rain = 0
KAI1 121726Z 24003KT 29/11 A3007 RMK A01 T02930114  RH  033%=      5-min Rain = 0
KAI1 121727Z 24004KT 30/11 A3007 RMK A01 T02950109  RH  032%=      5-min Rain = 0
KAI1 121728Z 24003KT 30/11 A3007 RMK A01 T02950109  RH  032%=      5-min Rain = 0
KAI1 121729Z 27004KT 29/11 A3007 RMK A01 T02930109  RH  032%=      5-min Rain = 0
KAI1 121730Z 26004KT 29/11 A3007 RMK A01 T02930113  RH  033%=      5-min Rain = 0
KAI1 121731Z 26005KT 29/11 A3007 RMK A01 T02940113  RH  033%=      5-min Rain = 0
KAI1 121732Z 27005KT 30/11 A3007 RMK A01 T02950113  RH  033%=      5-min Rain = 0
KAI1 121733Z 26004KT 30/11 A3007 RMK A01 T02960113  RH  032%=      5-min Rain = 0
KAI1 121734Z 20005KT 30/11 A3007 RMK A01 T02970113  RH  032%=      5-min Rain = 0
KAI1 121735Z 18003KT 30/11 A3007 RMK A01 T02980109  RH  031%=      5-min Rain = 0
KAI1 121736Z 21006KT 30/11 A3007 RMK A01 T02980114  RH  032%=      5-min Rain = 0
KAI1 121737Z 22007KT 30/11 A3007 RMK A01 T03000113  RH  032%=      5-min Rain = 0
KAI1 121738Z 22007KT 30/11 A3006 RMK A01 T02990111  RH  031%=      5-min Rain = 0
KAI1 121739Z 25007KT 30/11 A3006 RMK A01 T02980114  RH  032%=      5-min Rain = 0
KAI1 121740Z 27006KT 30/12 A3006 RMK A01 T02990119  RH  033%=      5-min Rain = 0
KAI1 121741Z 25005KT 30/12 A3006 RMK A01 T03010118  RH  032%=      5-min Rain = 0
KAI1 121742Z 24005KT 31/11 A3006 RMK A01 T03050112  RH  030%=      5-min Rain = 0
KAI1 121743Z 24005KT 31/11 A3006 RMK A01 T03050111  RH  030%=      5-min Rain = 0
KAI1 121744Z 25004KT 30/11 A3006 RMK A01 T03030108  RH  030%=      5-min Rain = 0
KAI1 121745Z 27006KT 30/11 A3006 RMK A01 T03020110  RH  031%=      5-min Rain = 0
KAI1 121746Z 27007KT 30/11 A3006 RMK A01 T03010113  RH  031%=      5-min Rain = 0
KAI1 121747Z 27006KT 30/11 A3006 RMK A01 T03010107  RH  030%=      5-min Rain = 0
KAI1 121748Z 27005KT 30/10 A3006 RMK A01 T03000103  RH  029%=      5-min Rain = 0
KAI1 121749Z 28003KT 30/11 A3006 RMK A01 T02990107  RH  030%=      5-min Rain = 0
KAI1 121750Z 28005KT 30/10 A3006 RMK A01 T02990104  RH  030%=      5-min Rain = 0
KAI1 121751Z 25002KT 30/11 A3006 RMK A01 T02970107  RH  031%=      5-min Rain = 0
KAI1 121752Z 24001KT 30/11 A3006 RMK A01 T02980108  RH  031%=      5-min Rain = 0
KAI1 121753Z 27007KT 30/11 A3006 RMK A01 T03000111  RH  031%=      5-min Rain = 0
KAI1 121754Z 28006KT 30/11 A3006 RMK A01 T03020109  RH  030%=      5-min Rain = 0
KAI1 121755Z 29005KT 30/11 A3006 RMK A01 T03020106  RH  030%=      5-min Rain = 0
KAI1 121756Z 28005KT 30/11 A3006 RMK A01 T03000106  RH  030%=      5-min Rain = 0
KAI1 121757Z 28005KT 30/11 A3006 RMK A01 T03010110  RH  031%=      5-min Rain = 0
KAI1 121758Z 25004KT 30/11 A3006 RMK A01 T03040106  RH  029%=      5-min Rain = 0
KAI1 121759Z 25006KT 31/11 A3006 RMK A01 T03060109  RH  030%=      5-min Rain = 0
KAI1 121800Z 25006KT 31/11 A3006 RMK A01 T03060108  RH  029%=      5-min Rain = 0
KAI1 121801Z 26005KT 30/10 A3006 RMK A01 T03040103  RH  029%=      5-min Rain = 0
KAI1 121802Z 29003KT 30/11 A3006 RMK A01 T03020105  RH  029%=      5-min Rain = 0
KAI1 121803Z 27002KT 30/11 A3005 RMK A01 T03000108  RH  030%=      5-min Rain = 0
KAI1 121804Z 27005KT 30/11 A3005 RMK A01 T03010113  RH  031%=      5-min Rain = 0
KAI1 121805Z 27006KT 30/11 A3005 RMK A01 T03040108  RH  030%=      5-min Rain = 0
KAI1 121806Z 29005KT 30/10 A3005 RMK A01 T03040102  RH  029%=      5-min Rain = 0
KAI1 121807Z 30003KT 30/10 A3005 RMK A01 T03030099  RH  028%=      5-min Rain = 0
KAI1 121808Z 27002KT 30/10 A3005 RMK A01 T03030101  RH  029%=      5-min Rain = 0
KAI1 121809Z 24003KT 30/10 A3005 RMK A01 T03040103  RH  029%=      5-min Rain = 0
KAI1 121810Z 26006KT 31/11 A3005 RMK A01 T03050109  RH  030%=      5-min Rain = 0
KAI1 121811Z 22003KT 31/11 A3005 RMK A01 T03060111  RH  030%=      5-min Rain = 0
KAI1 121812Z 26005KT 31/11 A3005 RMK A01 T03060114  RH  031%=      5-min Rain = 0
KAI1 121813Z 27007KT 31/11 A3005 RMK A01 T03070107  RH  029%=      5-min Rain = 0
KAI1 121814Z 27006KT 31/11 A3005 RMK A01 T03060105  RH  029%=      5-min Rain = 0
KAI1 121815Z 27005KT 30/11 A3005 RMK A01 T03040105  RH  029%=      5-min Rain = 0
KAI1 121816Z 27003KT 30/10 A3005 RMK A01 T03040103  RH  029%=      5-min Rain = 0
KAI1 121817Z 29003KT 30/10 A3005 RMK A01 T03030104  RH  029%=      5-min Rain = 0
KAI1 121818Z 29004KT 30/10 A3005 RMK A01 T03030104  RH  029%=      5-min Rain = 0
KAI1 121819Z 29003KT 30/10 A3005 RMK A01 T03040104  RH  029%=      5-min Rain = 0
KAI1 121820Z 25006KT 31/10 A3005 RMK A01 T03060104  RH  029%=      5-min Rain = 0
KAI1 121821Z 23003KT 31/10 A3005 RMK A01 T03070100  RH  028%=      5-min Rain = 0
KAI1 121822Z 25004KT 31/10 A3005 RMK A01 T03060103  RH  028%=      5-min Rain = 0
KAI1 121823Z 27006KT 31/10 A3005 RMK A01 T03080104  RH  028%=      5-min Rain = 0
KAI1 121824Z 29006KT 31/10 A3005 RMK A01 T03100099  RH  027%=      5-min Rain = 0
KAI1 121825Z 29006KT 31/10 A3005 RMK A01 T03120098  RH  027%=      5-min Rain = 0
KAI1 121826Z 29004KT 31/09 A3005 RMK A01 T03130091  RH  025%=      5-min Rain = 0
KAI1 121827Z 28003KT 31/09 A3005 RMK A01 T03090089  RH  026%=      5-min Rain = 0
KAI1 121828Z 27002KT 31/09 A3005 RMK A01 T03080088  RH  026%=      5-min Rain = 0
KAI1 121829Z 26003KT 31/09 A3005 RMK A01 T03070091  RH  026%=      5-min Rain = 0
KAI1 121830Z 26003KT 31/09 A3005 RMK A01 T03070090  RH  026%=      5-min Rain = 0
KAI1 121831Z 28002KT 31/09 A3004 RMK A01 T03070088  RH  026%=      5-min Rain = 0
KAI1 121832Z 29001KT 31/09 A3004 RMK A01 T03070089  RH  026%=      5-min Rain = 0
KAI1 121833Z 06001KT 31/09 A3004 RMK A01 T03070090  RH  026%=      5-min Rain = 0
KAI1 121834Z 07001KT 31/09 A3004 RMK A01 T03070087  RH  025%=      5-min Rain = 0
KAI1 121835Z 33001KT 31/09 A3004 RMK A01 T03070088  RH  026%=      5-min Rain = 0
KAI1 121836Z 31001KT 31/09 A3004 RMK A01 T03080091  RH  026%=      5-min Rain = 0
KAI1 121837Z 00001KT 31/10 A3004 RMK A01 T03090100  RH  027%=      5-min Rain = 0
KAI1 121838Z 34003KT 31/10 A3004 RMK A01 T03120098  RH  027%=      5-min Rain = 0
KAI1 121839Z 26004KT 32/10 A3004 RMK A01 T03170101  RH  026%=      5-min Rain = 0
KAI1 121840Z 22007KT 32/10 A3004 RMK A01 T03200104  RH  027%=      5-min Rain = 0
KAI1 121841Z 22007KT 32/10 A3004 RMK A01 T03190104  RH  027%=      5-min Rain = 0
KAI1 121842Z 22004KT 32/10 A3004 RMK A01 T03170100  RH  026%=      5-min Rain = 0
KAI1 121843Z 22003KT 32/10 A3004 RMK A01 T03150102  RH  027%=      5-min Rain = 0
KAI1 121844Z 20007KT 32/10 A3004 RMK A01 T03170103  RH  027%=      5-min Rain = 0
KAI1 121845Z 19004KT 32/10 A3004 RMK A01 T03200100  RH  026%=      5-min Rain = 0
KAI1 121846Z 19003KT 32/10 A3004 RMK A01 T03180101  RH  026%=      5-min Rain = 0
KAI1 121847Z 20002KT 32/10 A3004 RMK A01 T03170099  RH  026%=      5-min Rain = 0
KAI1 121848Z 23002KT 32/10 A3004 RMK A01 T03160099  RH  026%=      5-min Rain = 0
KAI1 121849Z 27001KT 31/10 A3004 RMK A01 T03140102  RH  027%=      5-min Rain = 0
KAI1 121850Z 12001KT 31/10 A3003 RMK A01 T03140101  RH  027%=      5-min Rain = 0
KAI1 121851Z 01004KT 32/10 A3003 RMK A01 T03160098  RH  026%=      5-min Rain = 0
KAI1 121852Z 02005KT 32/09 A3003 RMK A01 T03190093  RH  025%=      5-min Rain = 0
KAI1 121853Z 04003KT 32/09 A3003 RMK A01 T03180088  RH  024%=      5-min Rain = 0
KAI1 121854Z 35004KT 32/09 A3003 RMK A01 T03170092  RH  025%=      5-min Rain = 0
KAI1 121855Z 32003KT 32/09 A3003 RMK A01 T03170091  RH  025%=      5-min Rain = 0
KAI1 121856Z 30002KT 32/09 A3003 RMK A01 T03150092  RH  025%=      5-min Rain = 0
KAI1 121857Z 28007KT 32/09 A3003 RMK A01 T03150089  RH  025%=      5-min Rain = 0
KAI1 121858Z 29006KT 32/09 A3003 RMK A01 T03160090  RH  025%=      5-min Rain = 0
KAI1 121859Z 28002KT 32/09 A3003 RMK A01 T03180085  RH  024%=      5-min Rain = 0
KAI1 121900Z 26005KT 32/09 A3003 RMK A01 T03170088  RH  024%=      5-min Rain = 0
KAI1 121901Z 28006KT 32/09 A3003 RMK A01 T03190092  RH  025%=      5-min Rain = 0
KAI1 121902Z 25006KT 32/09 A3003 RMK A01 T03200094  RH  025%=      5-min Rain = 0
KAI1 121903Z 24005KT 32/09 A3003 RMK A01 T03220089  RH  024%=      5-min Rain = 0
KAI1 121904Z 26003KT 32/09 A3003 RMK A01 T03220085  RH  023%=      5-min Rain = 0
KAI1 121905Z 27004KT 32/09 A3003 RMK A01 T03190087  RH  024%=      5-min Rain = 0
KAI1 121906Z 26003KT 32/09 A3003 RMK A01 T03180085  RH  024%=      5-min Rain = 0
KAI1 121907Z 25004KT 32/08 A3003 RMK A01 T03170084  RH  024%=      5-min Rain = 0
KAI1 121908Z 26002KT 32/09 A3003 RMK A01 T03170085  RH  024%=      5-min Rain = 0
KAI1 121909Z 30001KT 32/08 A3002 RMK A01 T03170084  RH  023%=      5-min Rain = 0
KAI1 121910Z 29001KT 32/09 A3002 RMK A01 T03180086  RH  024%=      5-min Rain = 0
KAI1 121911Z 25005KT 32/09 A3002 RMK A01 T03190088  RH  024%=      5-min Rain = 0
KAI1 121912Z 25005KT 32/09 A3002 RMK A01 T03200089  RH  024%=      5-min Rain = 0
KAI1 121913Z 25004KT 32/09 A3002 RMK A01 T03200087  RH  024%=      5-min Rain = 0
KAI1 121914Z 22004KT 32/09 A3002 RMK A01 T03200086  RH  023%=      5-min Rain = 0
KAI1 121915Z 19006KT 32/09 A3002 RMK A01 T03200086  RH  023%=      5-min Rain = 0
KAI1 121916Z 18003KT 33/08 A3002 RMK A01 T03250084  RH  023%=      5-min Rain = 0
KAI1 121917Z 25002KT 33/09 A3002 RMK A01 T03260087  RH  023%=      5-min Rain = 0
KAI1 121918Z 26006KT 33/09 A3002 RMK A01 T03260088  RH  023%=      5-min Rain = 0
KAI1 121919Z 27005KT 32/09 A3002 RMK A01 T03240091  RH  024%=      5-min Rain = 0
KAI1 121920Z 29005KT 32/09 A3002 RMK A01 T03230093  RH  024%=      5-min Rain = 0
KAI1 121921Z 28005KT 32/09 A3002 RMK A01 T03220094  RH  025%=      5-min Rain = 0
KAI1 121922Z 30009KT 32/08 A3002 RMK A01 T03230084  RH  023%=      5-min Rain = 0
KAI1 121923Z 32008KT 32/09 A3002 RMK A01 T03230086  RH  023%=      5-min Rain = 0
KAI1 121924Z 32008KT 32/08 A3002 RMK A01 T03240083  RH  022%=      5-min Rain = 0
KAI1 121925Z 29006KT 32/08 A3002 RMK A01 T03240077  RH  022%=      5-min Rain = 0
KAI1 121926Z 33007KT 32/08 A3002 RMK A01 T03240083  RH  023%=      5-min Rain = 0
KAI1 121927Z 33007KT 33/09 A3002 RMK A01 T03250085  RH  023%=      5-min Rain = 0
KAI1 121928Z 36007KT 33/09 A3002 RMK A01 T03260088  RH  023%=      5-min Rain = 0
KAI1 121929Z 00006KT 33/09 A3002 RMK A01 T03260086  RH  023%=      5-min Rain = 0
KAI1 121930Z 01008KT 33/09 A3001 RMK A01 T03280087  RH  023%=      5-min Rain = 0
KAI1 121931Z 02006KT 33/08 A3001 RMK A01 T03270083  RH  022%=      5-min Rain = 0
KAI1 121932Z 02005KT 33/08 A3001 RMK A01 T03250081  RH  022%=      5-min Rain = 0
KAI1 121933Z 03005KT 32/09 A3001 RMK A01 T03240085  RH  023%=      5-min Rain = 0
KAI1 121934Z 04007KT 33/08 A3001 RMK A01 T03250081  RH  022%=      5-min Rain = 0
KAI1 121935Z 03006KT 33/08 A3001 RMK A01 T03250084  RH  023%=      5-min Rain = 0
KAI1 121936Z 04007KT 33/08 A3001 RMK A01 T03250082  RH  022%=      5-min Rain = 0
KAI1 121937Z 02006KT 32/08 A3001 RMK A01 T03230083  RH  023%=      5-min Rain = 0
KAI1 121938Z 03005KT 32/08 A3001 RMK A01 T03230080  RH  022%=      5-min Rain = 0
KAI1 121939Z 04002KT 32/08 A3001 RMK A01 T03220081  RH  022%=      5-min Rain = 0
KAI1 121940Z 08002KT 32/08 A3001 RMK A01 T03220082  RH  023%=      5-min Rain = 0
KAI1 121941Z 17001KT 32/08 A3001 RMK A01 T03220082  RH  023%=      5-min Rain = 0
KAI1 121942Z 26001KT 32/08 A3001 RMK A01 T03240082  RH  022%=      5-min Rain = 0
KAI1 121943Z 26004KT 33/09 A3001 RMK A01 T03250087  RH  023%=      5-min Rain = 0
KAI1 121944Z 25003KT 33/09 A3001 RMK A01 T03250085  RH  023%=      5-min Rain = 0
KAI1 121945Z 26003KT 33/09 A3001 RMK A01 T03250085  RH  023%=      5-min Rain = 0
KAI1 121946Z 27002KT 33/09 A30 RMK A01 T03250092  RH  024%=      5-min Rain = 0
KAI1 121947Z 28004KT 33/09 A30 RMK A01 T03270090  RH  023%=      5-min Rain = 0
KAI1 121948Z 31003KT 33/09 A30 RMK A01 T03290090  RH  023%=      5-min Rain = 0
KAI1 121949Z 34003KT 33/09 A30 RMK A01 T03300085  RH  022%=      5-min Rain = 0
KAI1 121950Z 27003KT 33/09 A30 RMK A01 T03300087  RH  022%=      5-min Rain = 0
KAI1 121951Z 29003G8KT 33/09 A30 RMK A01 T03310091  RH  023%=      5-min Rain = 0
KAI1 121952Z 31007KT 33/09 A30 RMK A01 T03330087  RH  022%=      5-min Rain = 0
KAI1 121953Z 30006KT 33/09 A30 RMK A01 T03300085  RH  022%=      5-min Rain = 0
KAI1 121954Z 30005KT 33/09 A30 RMK A01 T03290085  RH  022%=      5-min Rain = 0
KAI1 121955Z 27005KT 33/09 A30 RMK A01 T03290085  RH  022%=      5-min Rain = 0
KAI1 121956Z 27005KT 33/08 A30 RMK A01 T03290084  RH  022%=      5-min Rain = 0
KAI1 121957Z 29004KT 33/09 A30 RMK A01 T03300090  RH  023%=      5-min Rain = 0
KAI1 121958Z 30007KT 33/09 A30 RMK A01 T03330088  RH  022%=      5-min Rain = 0
KAI1 121959Z 30006KT 33/08 A30 RMK A01 T03320082  RH  021%=      5-min Rain = 0
KAI1 122000Z 30005KT 33/08 A30 RMK A01 T03300083  RH  022%=      5-min Rain = 0
KAI1 122001Z 30006KT 33/08 A30 RMK A01 T03290082  RH  022%=      5-min Rain = 0
KAI1 122002Z 28003KT 33/08 A2999 RMK A01 T03270080  RH  022%=      5-min Rain = 0
KAI1 122003Z 27004KT 33/08 A2999 RMK A01 T03270084  RH  022%=      5-min Rain = 0
KAI1 122004Z 25004KT 33/08 A2999 RMK A01 T03280082  RH  022%=      5-min Rain = 0
KAI1 122005Z 26004KT 33/08 A2999 RMK A01 T03290084  RH  022%=      5-min Rain = 0
KAI1 122006Z 28006KT 33/09 A2999 RMK A01 T03310088  RH  022%=      5-min Rain = 0
KAI1 122007Z 30006KT 33/09 A2999 RMK A01 T03320088  RH  022%=      5-min Rain = 0
KAI1 122008Z 31005KT 33/08 A2999 RMK A01 T03310084  RH  022%=      5-min Rain = 0
KAI1 122009Z 31004KT 33/09 A2999 RMK A01 T03300085  RH  022%=      5-min Rain = 0
KAI1 122010Z 28005KT 33/09 A2999 RMK A01 T03300088  RH  022%=      5-min Rain = 0
KAI1 122011Z 28004KT 33/08 A2999 RMK A01 T03310084  RH  022%=      5-min Rain = 0
KAI1 122012Z 34005KT 33/09 A2999 RMK A01 T03290085  RH  022%=      5-min Rain = 0
KAI1 122013Z 36010KT 33/09 A2999 RMK A01 T03280086  RH  022%=      5-min Rain = 0
KAI1 122014Z 34006KT 33/08 A2999 RMK A01 T03290081  RH  021%=      5-min Rain = 0
KAI1 122015Z 00004KT 33/08 A2999 RMK A01 T03290084  RH  022%=      5-min Rain = 0
KAI1 122016Z 31009KT 33/09 A2999 RMK A01 T03310088  RH  022%=      5-min Rain = 0
KAI1 122017Z 31008KT 33/08 A2999 RMK A01 T03330081  RH  021%=      5-min Rain = 0
KAI1 122018Z 30005KT 33/08 A2999 RMK A01 T03290081  RH  021%=      5-min Rain = 0
KAI1 122019Z 30007KT 33/08 A2999 RMK A01 T03290082  RH  022%=      5-min Rain = 0
KAI1 122020Z 30005KT 33/08 A2999 RMK A01 T03300079  RH  021%=      5-min Rain = 0
KAI1 122021Z 26005KT 33/08 A2999 RMK A01 T03300081  RH  022%=      5-min Rain = 0
KAI1 122022Z 28004KT 33/08 A2998 RMK A01 T03310084  RH  022%=      5-min Rain = 0
KAI1 122023Z 26007KT 33/09 A2998 RMK A01 T03340089  RH  022%=      5-min Rain = 0
KAI1 122024Z 27006KT 34/08 A2998 RMK A01 T03350083  RH  021%=      5-min Rain = 0
KAI1 122025Z 27004KT 33/08 A2998 RMK A01 T03330078  RH  021%=      5-min Rain = 0
KAI1 122026Z 34003KT 33/08 A2998 RMK A01 T03310079  RH  021%=      5-min Rain = 0
KAI1 122027Z 34003KT 33/09 A2998 RMK A01 T03300085  RH  022%=      5-min Rain = 0
KAI1 122028Z 33004KT 33/09 A2998 RMK A01 T03310086  RH  022%=      5-min Rain = 0
KAI1 122029Z 31003KT 33/08 A2998 RMK A01 T03320081  RH  021%=      5-min Rain = 0
KAI1 122030Z 30006KT 33/08 A2998 RMK A01 T03310081  RH  021%=      5-min Rain = 0
KAI1 122031Z 30004KT 33/08 A2998 RMK A01 T03300080  RH  021%=      5-min Rain = 0
KAI1 122032Z 29005KT 33/09 A2998 RMK A01 T03310085  RH  022%=      5-min Rain = 0
KAI1 122033Z 32007KT 33/09 A2998 RMK A01 T03340091  RH  022%=      5-min Rain = 0
KAI1 122034Z 30009KT 34/09 A2998 RMK A01 T03380088  RH  022%=      5-min Rain = 0
KAI1 122035Z 30005KT 34/08 A2998 RMK A01 T03350080  RH  021%=      5-min Rain = 0
KAI1 122036Z 30007KT 33/08 A2998 RMK A01 T03320084  RH  022%=      5-min Rain = 0
KAI1 122037Z 30005KT 33/08 A2998 RMK A01 T03330083  RH  021%=      5-min Rain = 0
KAI1 122038Z 30002KT 33/08 A2998 RMK A01 T03320079  RH  021%=      5-min Rain = 0
KAI1 122039Z 28005KT 33/08 A2997 RMK A01 T03310084  RH  022%=      5-min Rain = 0
KAI1 122040Z 29006KT 33/09 A2997 RMK A01 T03320087  RH  022%=      5-min Rain = 0
KAI1 122041Z 33008KT 33/09 A2997 RMK A01 T03330091  RH  023%=      5-min Rain = 0
KAI1 122042Z 32006KT 34/09 A2997 RMK A01 T03350085  RH  021%=      5-min Rain = 0
KAI1 122043Z 34005KT 33/09 A2997 RMK A01 T03330085  RH  022%=      5-min Rain = 0
KAI1 122044Z 01007KT 33/09 A2997 RMK A01 T03330088  RH  022%=      5-min Rain = 0
KAI1 122045Z 02007KT 33/09 A2997 RMK A01 T03320085  RH  022%=      5-min Rain = 0
KAI1 122046Z 03006KT 33/08 A2997 RMK A01 T03320083  RH  022%=      5-min Rain = 0
KAI1 122047Z 03006KT 33/08 A2997 RMK A01 T03310083  RH  022%=      5-min Rain = 0
KAI1 122048Z 04004KT 33/08 A2997 RMK A01 T03290081  RH  022%=      5-min Rain = 0
KAI1 122049Z 05002KT 33/09 A2997 RMK A01 T03270085  RH  022%=      5-min Rain = 0
KAI1 122050Z 05000KT 33/09 A2997 RMK A01 T03270085  RH  022%=      5-min Rain = 0
KAI1 122051Z 28000KT 33/09 A2997 RMK A01 T03280085  RH  022%=      5-min Rain = 0
KAI1 122052Z 04000KT 33/09 A2997 RMK A01 T03300086  RH  022%=      5-min Rain = 0
KAI1 122053Z 00000KT 33/09 A2997 RMK A01 T03320088  RH  022%=      5-min Rain = 0
KAI1 122054Z 21000KT 34/09 A2997 RMK A01 T03350094  RH  023%=      5-min Rain = 0
KAI1 122055Z 26003KT 34/09 A2997 RMK A01 T03380094  RH  022%=      5-min Rain = 0
KAI1 122056Z 26005KT 34/09 A2997 RMK A01 T03380085  RH  021%=      5-min Rain = 0
KAI1 122057Z 27003KT 34/09 A2997 RMK A01 T03360087  RH  021%=      5-min Rain = 0
KAI1 122058Z 32006KT 34/09 A2997 RMK A01 T03360091  RH  022%=      5-min Rain = 0
KAI1 122059Z 29008KT 34/10 A2996 RMK A01 T03380098  RH  023%=      5-min Rain = 0
KAI1 122100Z 31007KT 34/10 A2996 RMK A01 T03380096  RH  023%=      5-min Rain = 0
KAI1 122101Z 31008KT 34/09 A2996 RMK A01 T03360093  RH  023%=      5-min Rain = 0
KAI1 122102Z 30005KT 34/10 A2996 RMK A01 T03350096  RH  023%=      5-min Rain = 0
KAI1 122103Z 32007KT 34/10 A2996 RMK A01 T03380096  RH  023%=      5-min Rain = 0
KAI1 122104Z 33005KT 34/09 A2996 RMK A01 T03380089  RH  022%=      5-min Rain = 0
KAI1 122105Z 33006KT 34/09 A2996 RMK A01 T03370090  RH  022%=      5-min Rain = 0
KAI1 122106Z 34008KT 34/09 A2996 RMK A01 T03360089  RH  022%=      5-min Rain = 0
KAI1 122107Z 33007KT 34/10 A2996 RMK A01 T03350095  RH  023%=      5-min Rain = 0
KAI1 122108Z 30007KT 34/10 A2996 RMK A01 T03370098  RH  023%=      5-min Rain = 0
KAI1 122109Z 31007KT 34/11 A2996 RMK A01 T03370105  RH  024%=      5-min Rain = 0
KAI1 122110Z 33007KT 34/10 A2996 RMK A01 T03380098  RH  023%=      5-min Rain = 0
KAI1 122111Z 34007KT 34/09 A2996 RMK A01 T03380089  RH  022%=      5-min Rain = 0
KAI1 122112Z 35004KT 33/08 A2996 RMK A01 T03340084  RH  021%=      5-min Rain = 0
KAI1 122113Z 02002KT 33/08 A2996 RMK A01 T03320084  RH  022%=      5-min Rain = 0
KAI1 122114Z 01001KT 33/09 A2996 RMK A01 T03310088  RH  022%=      5-min Rain = 0
KAI1 122115Z 04001KT 33/08 A2996 RMK A01 T03300084  RH  022%=      5-min Rain = 0
KAI1 122116Z 09000KT 33/08 A2996 RMK A01 T03300084  RH  022%=      5-min Rain = 0
KAI1 122117Z 24003KT 33/09 A2996 RMK A01 T03310089  RH  023%=      5-min Rain = 0
KAI1 122118Z 26006KT 33/10 A2996 RMK A01 T03330096  RH  023%=      5-min Rain = 0
KAI1 122119Z 29004KT 34/09 A2996 RMK A01 T03360091  RH  022%=      5-min Rain = 0
KAI1 122120Z 29004KT 34/09 A2996 RMK A01 T03370091  RH  022%=      5-min Rain = 0
KAI1 122121Z 33006KT 34/09 A2996 RMK A01 T03370093  RH  022%=      5-min Rain = 0
KAI1 122122Z 00006KT 34/09 A2996 RMK A01 T03360092  RH  022%=      5-min Rain = 0
KAI1 122123Z 01004KT 34/09 A2996 RMK A01 T03360088  RH  022%=      5-min Rain = 0
KAI1 122124Z 03004KT 34/09 A2996 RMK A01 T03350085  RH  021%=      5-min Rain = 0
KAI1 122125Z 03004KT 33/09 A2996 RMK A01 T03330087  RH  022%=      5-min Rain = 0
KAI1 122126Z 03003KT 33/09 A2996 RMK A01 T03320085  RH  022%=      5-min Rain = 0
KAI1 122127Z 05002KT 33/08 A2996 RMK A01 T03310084  RH  022%=      5-min Rain = 0
KAI1 122128Z 09001KT 33/08 A2996 RMK A01 T03300084  RH  022%=      5-min Rain = 0
KAI1 122129Z 14001KT 33/08 A2996 RMK A01 T03310084  RH  022%=      5-min Rain = 0
KAI1 122130Z 15002KT 33/08 A2995 RMK A01 T03310084  RH  022%=      5-min Rain = 0
KAI1 122131Z 13002KT 33/09 A2995 RMK A01 T03330089  RH  022%=      5-min Rain = 0
KAI1 122132Z 15002KT 34/09 A2995 RMK A01 T03350089  RH  022%=      5-min Rain = 0
KAI1 122133Z 18001KT 34/09 A2995 RMK A01 T03350086  RH  022%=      5-min Rain = 0
KAI1 122134Z 20000KT 34/09 A2995 RMK A01 T03350086  RH  021%=      5-min Rain = 0
KAI1 122135Z 25000KT 34/09 A2995 RMK A01 T03350086  RH  021%=      5-min Rain = 0
KAI1 122136Z 18001KT 33/09 A2995 RMK A01 T03340085  RH  022%=      5-min Rain = 0
KAI1 122137Z 14000KT 33/09 A2995 RMK A01 T03340087  RH  022%=      5-min Rain = 0
KAI1 122138Z 10001KT 33/09 A2995 RMK A01 T03340087  RH  022%=      5-min Rain = 0
KAI1 122139Z 35002KT 34/09 A2995 RMK A01 T03350090  RH  022%=      5-min Rain = 0
KAI1 122140Z 31002KT 34/09 A2995 RMK A01 T03360088  RH  022%=      5-min Rain = 0
KAI1 122141Z 21001KT 34/09 A2995 RMK A01 T03360088  RH  022%=      5-min Rain = 0
KAI1 122142Z 14002KT 34/09 A2995 RMK A01 T03380092  RH  022%=      5-min Rain = 0
KAI1 122143Z 12003KT 34/09 A2995 RMK A01 T03400092  RH  022%=      5-min Rain = 0
KAI1 122144Z 10003KT 34/09 A2995 RMK A01 T03370093  RH  022%=      5-min Rain = 0
KAI1 122145Z 07003KT 34/09 A2995 RMK A01 T03350090  RH  022%=      5-min Rain = 0
KAI1 122146Z 10004KT 33/11 A2995 RMK A01 T03340105  RH  025%=      5-min Rain = 0
KAI1 122147Z 07003KT 33/10 A2995 RMK A01 T03340103  RH  024%=      5-min Rain = 0
KAI1 122148Z 04004KT 33/09 A2995 RMK A01 T03340090  RH  022%=      5-min Rain = 0
KAI1 122149Z 04005KT 33/09 A2995 RMK A01 T03330090  RH  022%=      5-min Rain = 0
KAI1 122150Z 05004KT 33/09 A2995 RMK A01 T03320088  RH  022%=      5-min Rain = 0
KAI1 122151Z 06003KT 33/09 A2995 RMK A01 T03310088  RH  022%=      5-min Rain = 0
KAI1 122152Z 08002KT 33/09 A2995 RMK A01 T03320090  RH  023%=      5-min Rain = 0
KAI1 122153Z 06003KT 34/09 A2995 RMK A01 T03350091  RH  022%=      5-min Rain = 0
KAI1 122154Z 09002KT 34/09 A2995 RMK A01 T03350092  RH  022%=      5-min Rain = 0
KAI1 122155Z 09002KT 33/09 A2995 RMK A01 T03330090  RH  022%=      5-min Rain = 0
KAI1 122156Z 08001KT 33/09 A2995 RMK A01 T03310092  RH  023%=      5-min Rain = 0
KAI1 122157Z 09002KT 33/11 A2995 RMK A01 T03310106  RH  025%=      5-min Rain = 0
KAI1 122158Z 09004KT 33/12 A2995 RMK A01 T03320119  RH  027%=      5-min Rain = 0
KAI1 122159Z 08004KT 33/10 A2995 RMK A01 T03330102  RH  024%=      5-min Rain = 0
KAI1 122200Z 08002KT 33/09 A2995 RMK A01 T03320090  RH  023%=      5-min Rain = 0
KAI1 122201Z 09002KT 33/09 A2995 RMK A01 T03320087  RH  022%=      5-min Rain = 0
KAI1 122202Z 11002KT 33/09 A2995 RMK A01 T03320093  RH  023%=      5-min Rain = 0
KAI1 122203Z 13004KT 33/10 A2995 RMK A01 T03320099  RH  024%=      5-min Rain = 0
KAI1 122204Z 11005KT 33/11 A2995 RMK A01 T03320110  RH  026%=      5-min Rain = 0
KAI1 122205Z 11004KT 33/09 A2995 RMK A01 T03320091  RH  023%=      5-min Rain = 0
KAI1 122206Z 11002KT 33/10 A2995 RMK A01 T03310095  RH  023%=      5-min Rain = 0
KAI1 122207Z 11002KT 33/09 A2995 RMK A01 T03310088  RH  022%=      5-min Rain = 0
KAI1 122208Z 10002KT 33/09 A2995 RMK A01 T03310094  RH  023%=      5-min Rain = 0
KAI1 122209Z 10002KT 33/10 A2995 RMK A01 T03320098  RH  024%=      5-min Rain = 0
KAI1 122210Z 07003KT 33/09 A2995 RMK A01 T03320089  RH  022%=      5-min Rain = 0
KAI1 122211Z 04001KT 33/09 A2995 RMK A01 T03320089  RH  022%=      5-min Rain = 0
KAI1 122212Z 11001KT 33/09 A2995 RMK A01 T03320090  RH  023%=      5-min Rain = 0
KAI1 122213Z 06002KT 33/11 A2995 RMK A01 T03320109  RH  026%=      5-min Rain = 0
KAI1 122214Z 02004KT 33/10 A2995 RMK A01 T03330100  RH  024%=      5-min Rain = 0
KAI1 122215Z 02005KT 34/10 A2995 RMK A01 T03350102  RH  024%=      5-min Rain = 0
KAI1 122216Z 02005KT 34/10 A2995 RMK A01 T03370095  RH  023%=      5-min Rain = 0
KAI1 122217Z 02003KT 34/09 A2995 RMK A01 T03370088  RH  022%=      5-min Rain = 0
KAI1 122218Z 04002KT 33/09 A2995 RMK A01 T03340088  RH  022%=      5-min Rain = 0
KAI1 122219Z 06002KT 33/09 A2995 RMK A01 T03330087  RH  022%=      5-min Rain = 0
KAI1 122220Z 01003KT 33/09 A2995 RMK A01 T03320091  RH  023%=      5-min Rain = 0
KAI1 122221Z 01004KT 33/09 A2995 RMK A01 T03320094  RH  023%=      5-min Rain = 0
KAI1 122222Z 03005KT 34/09 A2995 RMK A01 T03350093  RH  023%=      5-min Rain = 0
KAI1 122223Z 03005KT 34/09 A2995 RMK A01 T03350090  RH  022%=      5-min Rain = 0
KAI1 122224Z 02004KT 33/09 A2995 RMK A01 T03330088  RH  022%=      5-min Rain = 0
KAI1 122225Z 02005KT 33/09 A2995 RMK A01 T03320089  RH  022%=      5-min Rain = 0
KAI1 122226Z 04004KT 33/09 A2995 RMK A01 T03310093  RH  023%=      5-min Rain = 0
KAI1 122227Z 03006KT 33/11 A2995 RMK A01 T03310106  RH  025%=      5-min Rain = 0
KAI1 122228Z 03006KT 33/10 A2995 RMK A01 T03310104  RH  025%=      5-min Rain = 0
KAI1 122229Z 03007KT 33/10 A2995 RMK A01 T03320102  RH  024%=      5-min Rain = 0
KAI1 122230Z 03007KT 33/09 A2995 RMK A01 T03320089  RH  023%=      5-min Rain = 0
KAI1 122231Z 03005KT 33/09 A2995 RMK A01 T03300093  RH  023%=      5-min Rain = 0
KAI1 122232Z 04005KT 33/10 A2995 RMK A01 T03320096  RH  024%=      5-min Rain = 0
KAI1 122233Z 04006KT 33/10 A2994 RMK A01 T03320100  RH  024%=      5-min Rain = 0
KAI1 122234Z 04006KT 33/10 A2994 RMK A01 T03330095  RH  023%=      5-min Rain = 0
KAI1 122235Z 04006KT 33/09 A2994 RMK A01 T03330094  RH  023%=      5-min Rain = 0
KAI1 122236Z 03007KT 33/10 A2994 RMK A01 T03320095  RH  023%=      5-min Rain = 0
KAI1 122237Z 04005KT 33/10 A2994 RMK A01 T03300097  RH  024%=      5-min Rain = 0
KAI1 122238Z 03007KT 33/10 A2994 RMK A01 T03300098  RH  024%=      5-min Rain = 0
KAI1 122239Z 02006KT 33/10 A2994 RMK A01 T03300098  RH  024%=      5-min Rain = 0
KAI1 122240Z 02006KT 33/10 A2994 RMK A01 T03300097  RH  024%=      5-min Rain = 0
KAI1 122241Z 02006KT 33/09 A2994 RMK A01 T03310093  RH  023%=      5-min Rain = 0
KAI1 122242Z 01006KT 33/09 A2994 RMK A01 T03300091  RH  023%=      5-min Rain = 0
KAI1 122243Z 00006KT 33/10 A2994 RMK A01 T03310096  RH  024%=      5-min Rain = 0
KAI1 122244Z 00005KT 33/09 A2994 RMK A01 T03320090  RH  023%=      5-min Rain = 0
KAI1 122245Z 00003KT 33/09 A2994 RMK A01 T03310088  RH  022%=      5-min Rain = 0
KAI1 122246Z 00002KT 33/09 A2994 RMK A01 T03300086  RH  022%=      5-min Rain = 0
KAI1 122247Z 01001KT 33/09 A2994 RMK A01 T03310091  RH  023%=      5-min Rain = 0
KAI1 122248Z 02002KT 33/10 A2994 RMK A01 T03300095  RH  024%=      5-min Rain = 0
KAI1 122249Z 03004KT 33/10 A2994 RMK A01 T03310097  RH  024%=      5-min Rain = 0
KAI1 122250Z 04005KT 33/11 A2994 RMK A01 T03300107  RH  026%=      5-min Rain = 0
KAI1 122251Z 04008KT 33/11 A2994 RMK A01 T03280107  RH  026%=      5-min Rain = 0
KAI1 122252Z 04005KT 33/11 A2994 RMK A01 T03250109  RH  027%=      5-min Rain = 0
KAI1 122253Z 04008G13KT 32/11 A2994 RMK A01 T03230111  RH  027%=      5-min Rain = 0
KAI1 122254Z 08011KT 32/12 A2994 RMK A01 T03230116  RH  028%=      5-min Rain = 0
KAI1 122255Z 10012KT 32/12 A2994 RMK A01 T03210123  RH  030%=      5-min Rain = 0
KAI1 122256Z 10009KT 32/12 A2994 RMK A01 T03170124  RH  031%=      5-min Rain = 0
KAI1 122257Z 08009KT 32/13 A2994 RMK A01 T03160129  RH  032%=      5-min Rain = 0
KAI1 122258Z 08009KT 31/12 A2994 RMK A01 T03140124  RH  031%=      5-min Rain = 0
KAI1 122259Z 09011KT 31/13 A2994 RMK A01 T03140126  RH  032%=      5-min Rain = 0
KAI1 122300Z 09012KT 31/13 A2994 RMK A01 T03130128  RH  032%=      5-min Rain = 0
KAI1 122301Z 08012KT 31/13 A2994 RMK A01 T03130126  RH  032%=      5-min Rain = 0
KAI1 122302Z 08012KT 31/13 A2994 RMK A01 T03120127  RH  032%=      5-min Rain = 0
KAI1 122303Z 08010KT 31/13 A2994 RMK A01 T03120126  RH  032%=      5-min Rain = 0
KAI1 122304Z 09009KT 31/13 A2994 RMK A01 T03110130  RH  033%=      5-min Rain = 0
KAI1 122305Z 09011KT 31/13 A2994 RMK A01 T03100130  RH  033%=      5-min Rain = 0
KAI1 122306Z 08011KT 31/12 A2994 RMK A01 T03090124  RH  032%=      5-min Rain = 0
KAI1 122307Z 08012KT 31/13 A2994 RMK A01 T03090125  RH  032%=      5-min Rain = 0
KAI1 122308Z 08011KT 31/12 A2994 RMK A01 T03090124  RH  032%=      5-min Rain = 0
KAI1 122309Z 09011KT 31/13 A2994 RMK A01 T03090126  RH  033%=      5-min Rain = 0
KAI1 122310Z 09011KT 31/13 A2994 RMK A01 T03070129  RH  034%=      5-min Rain = 0
KAI1 122311Z 10010KT 31/13 A2994 RMK A01 T03050131  RH  034%=      5-min Rain = 0
KAI1 122312Z 09013KT 30/13 A2994 RMK A01 T03030127  RH  034%=      5-min Rain = 0
KAI1 122313Z 10011KT 30/13 A2994 RMK A01 T03020126  RH  034%=      5-min Rain = 0
KAI1 122314Z 10011KT 30/13 A2994 RMK A01 T03010129  RH  035%=      5-min Rain = 0
KAI1 122315Z 10008KT 30/13 A2994 RMK A01 T03000131  RH  035%=      5-min Rain = 0
KAI1 122316Z 10009KT 30/13 A2994 RMK A01 T02990130  RH  035%=      5-min Rain = 0
KAI1 122317Z 09008KT 30/13 A2994 RMK A01 T02980130  RH  036%=      5-min Rain = 0
KAI1 122318Z 09009KT 30/13 A2994 RMK A01 T02970130  RH  036%=      5-min Rain = 0
KAI1 122319Z 09008KT 30/13 A2994 RMK A01 T02970129  RH  036%=      5-min Rain = 0
KAI1 122320Z 09010KT 30/13 A2994 RMK A01 T02960128  RH  036%=      5-min Rain = 0
KAI1 122321Z 09010KT 30/13 A2994 RMK A01 T02960125  RH  035%=      5-min Rain = 0
KAI1 122322Z 09010KT 30/13 A2994 RMK A01 T02970126  RH  035%=      5-min Rain = 0
KAI1 122323Z 09009KT 30/13 A2994 RMK A01 T02970127  RH  035%=      5-min Rain = 0
KAI1 122324Z 09008KT 30/13 A2994 RMK A01 T02970129  RH  036%=      5-min Rain = 0
KAI1 122325Z 09011KT 30/13 A2994 RMK A01 T02970130  RH  036%=      5-min Rain = 0
KAI1 122326Z 09013KT 30/13 A2994 RMK A01 T02970128  RH  035%=      5-min Rain = 0
KAI1 122327Z 09011KT 30/13 A2994 RMK A01 T02970128  RH  035%=      5-min Rain = 0
KAI1 122328Z 09010KT 30/13 A2994 RMK A01 T02960128  RH  036%=      5-min Rain = 0
KAI1 122329Z 09011KT 29/13 A2994 RMK A01 T02940128  RH  036%=      5-min Rain = 0
KAI1 122330Z 09010G15KT 29/13 A2994 RMK A01 T02940127  RH  036%=      5-min Rain = 0
KAI1 122331Z 10007KT 29/13 A2994 RMK A01 T02930130  RH  037%=      5-min Rain = 0
KAI1 122332Z 09008G13KT 29/13 A2994 RMK A01 T02920134  RH  038%=      5-min Rain = 0
KAI1 122333Z 09011KT 29/13 A2994 RMK A01 T02920130  RH  037%=      5-min Rain = 0
KAI1 122334Z 09012KT 29/13 A2994 RMK A01 T02920128  RH  036%=      5-min Rain = 0
KAI1 122335Z 09010KT 29/13 A2994 RMK A01 T02930128  RH  036%=      5-min Rain = 0
KAI1 122336Z 09010KT 29/13 A2994 RMK A01 T02930129  RH  037%=      5-min Rain = 0
KAI1 122337Z 09010KT 29/13 A2994 RMK A01 T02930130  RH  037%=      5-min Rain = 0
KAI1 122338Z 09010KT 29/13 A2994 RMK A01 T02920129  RH  037%=      5-min Rain = 0
KAI1 122339Z 09010KT 29/13 A2994 RMK A01 T02920130  RH  037%=      5-min Rain = 0
KAI1 122340Z 09010KT 29/13 A2994 RMK A01 T02930130  RH  037%=      5-min Rain = 0
KAI1 122341Z 09010KT 29/13 A2994 RMK A01 T02930130  RH  037%=      5-min Rain = 0
KAI1 122342Z 10010G15KT 29/13 A2994 RMK A01 T02930133  RH  037%=      5-min Rain = 0
KAI1 122343Z 10014KT 29/13 A2994 RMK A01 T02930130  RH  037%=      5-min Rain = 0
KAI1 122344Z 10012KT 29/13 A2994 RMK A01 T02930129  RH  036%=      5-min Rain = 0
KAI1 122345Z 10012KT 29/13 A2994 RMK A01 T02920130  RH  037%=      5-min Rain = 0
KAI1 122346Z 10013KT 29/13 A2994 RMK A01 T02920131  RH  037%=      5-min Rain = 0
KAI1 122347Z 10012KT 29/13 A2994 RMK A01 T02910130  RH  037%=      5-min Rain = 0
KAI1 122348Z 09010KT 29/13 A2994 RMK A01 T02910130  RH  037%=      5-min Rain = 0
KAI1 122349Z 09009KT 29/13 A2994 RMK A01 T02910132  RH  038%=      5-min Rain = 0
KAI1 122350Z 09010KT 29/13 A2994 RMK A01 T02900131  RH  038%=      5-min Rain = 0
KAI1 122351Z 08010KT 29/13 A2994 RMK A01 T02900131  RH  038%=      5-min Rain = 0
KAI1 122352Z 08010KT 29/13 A2994 RMK A01 T02900132  RH  038%=      5-min Rain = 0
KAI1 122353Z 09010KT 29/13 A2994 RMK A01 T02900132  RH  038%=      5-min Rain = 0
KAI1 122354Z 09012KT 29/13 A2994 RMK A01 T02890130  RH  038%=      5-min Rain = 0
KAI1 122355Z 09010KT 29/13 A2994 RMK A01 T02890131  RH  038%=      5-min Rain = 0
KAI1 122356Z 09010KT 29/13 A2994 RMK A01 T02880131  RH  038%=      5-min Rain = 0
KAI1 122357Z 09011KT 29/13 A2994 RMK A01 T02880130  RH  038%=      5-min Rain = 0
KAI1 122358Z 09010KT 29/13 A2994 RMK A01 T02880131  RH  038%=      5-min Rain = 0
KAI1 122359Z 09008KT 29/13 A2994 RMK A01 T02870132  RH  038%=      5-min Rain = 0
KAI1 130000Z 09010KT 29/13 A2994 RMK A01 T02860131  RH  038%=      5-min Rain = 0
KAI1 130001Z 09010KT 29/13 A2994 RMK A01 T02860130  RH  038%=      5-min Rain = 0
KAI1 130002Z 09011KT 29/13 A2994 RMK A01 T02860130  RH  038%=      5-min Rain = 0
KAI1 130003Z 09011KT 29/13 A2994 RMK A01 T02860131  RH  038%=      5-min Rain = 0
KAI1 130004Z 09009KT 29/13 A2994 RMK A01 T02860130  RH  038%=      5-min Rain = 0
KAI1 130005Z 09011KT 29/13 A2994 RMK A01 T02860130  RH  038%=      5-min Rain = 0
KAI1 130006Z 09011KT 29/13 A2994 RMK A01 T02860130  RH  038%=      5-min Rain = 0
KAI1 130007Z 09011KT 29/13 A2994 RMK A01 T02850130  RH  038%=      5-min Rain = 0
KAI1 130008Z 09010KT 28/13 A2994 RMK A01 T02840130  RH  039%=      5-min Rain = 0
KAI1 130009Z 08009KT 28/13 A2994 RMK A01 T02840131  RH  039%=      5-min Rain = 0
KAI1 130010Z 08011KT 28/13 A2994 RMK A01 T02840130  RH  039%=      5-min Rain = 0
KAI1 130011Z 08009KT 28/13 A2994 RMK A01 T02830130  RH  039%=      5-min Rain = 0
KAI1 130012Z 08010KT 28/13 A2994 RMK A01 T02830129  RH  039%=      5-min Rain = 0
KAI1 130013Z 08010KT 28/13 A2994 RMK A01 T02830130  RH  039%=      5-min Rain = 0
KAI1 130014Z 09008KT 28/13 A2994 RMK A01 T02820131  RH  039%=      5-min Rain = 0
KAI1 130015Z 09009KT 28/13 A2994 RMK A01 T02800131  RH  040%=      5-min Rain = 0
KAI1 130016Z 09010KT 28/13 A2994 RMK A01 T02790131  RH  040%=      5-min Rain = 0
KAI1 130017Z 09010KT 28/13 A2994 RMK A01 T02780129  RH  040%=      5-min Rain = 0
KAI1 130018Z 09008KT 28/13 A2994 RMK A01 T02780130  RH  040%=      5-min Rain = 0
KAI1 130019Z 09009KT 28/13 A2994 RMK A01 T02780131  RH  040%=      5-min Rain = 0
KAI1 130020Z 09009KT 28/13 A2994 RMK A01 T02770130  RH  040%=      5-min Rain = 0
KAI1 130021Z 09008KT 28/13 A2994 RMK A01 T02760130  RH  041%=      5-min Rain = 0
KAI1 130022Z 09010KT 28/13 A2994 RMK A01 T02750130  RH  041%=      5-min Rain = 0
KAI1 130023Z 09007KT 28/13 A2994 RMK A01 T02750130  RH  041%=      5-min Rain = 0
KAI1 130024Z 09008KT 27/13 A2994 RMK A01 T02740131  RH  041%=      5-min Rain = 0
KAI1 130025Z 09008KT 27/13 A2994 RMK A01 T02720131  RH  042%=      5-min Rain = 0
KAI1 130026Z 09008KT 27/13 A2994 RMK A01 T02710132  RH  042%=      5-min Rain = 0
KAI1 130027Z 08008KT 27/13 A2994 RMK A01 T02710131  RH  042%=      5-min Rain = 0
KAI1 130028Z 09008KT 27/13 A2994 RMK A01 T02710131  RH  042%=      5-min Rain = 0
KAI1 130029Z 09010KT 27/13 A2994 RMK A01 T02700130  RH  042%=      5-min Rain = 0
KAI1 130030Z 09010KT 27/13 A2994 RMK A01 T02700128  RH  041%=      5-min Rain = 0
KAI1 130031Z 09009KT 27/13 A2994 RMK A01 T02710129  RH  042%=      5-min Rain = 0
KAI1 130032Z 09009KT 27/13 A2994 RMK A01 T02700129  RH  042%=      5-min Rain = 0
KAI1 130033Z 09009KT 27/13 A2994 RMK A01 T02690129  RH  042%=      5-min Rain = 0
KAI1 130034Z 09009KT 27/13 A2994 RMK A01 T02690129  RH  042%=      5-min Rain = 0
KAI1 130035Z 09009KT 27/13 A2994 RMK A01 T02680129  RH  042%=      5-min Rain = 0
KAI1 130036Z 09010KT 27/13 A2994 RMK A01 T02670129  RH  042%=      5-min Rain = 0
KAI1 130037Z 09009KT 27/13 A2994 RMK A01 T02670129  RH  042%=      5-min Rain = 0
KAI1 130038Z 09011KT 27/13 A2994 RMK A01 T02670128  RH  042%=      5-min Rain = 0
KAI1 130039Z 09009KT 27/13 A2995 RMK A01 T02670128  RH  042%=      5-min Rain = 0
KAI1 130040Z 09009KT 27/13 A2995 RMK A01 T02660128  RH  043%=      5-min Rain = 0
KAI1 130041Z 09009KT 27/13 A2995 RMK A01 T02650128  RH  043%=      5-min Rain = 0
KAI1 130042Z 08009KT 27/13 A2995 RMK A01 T02650128  RH  043%=      5-min Rain = 0
KAI1 130043Z 09009KT 26/13 A2995 RMK A01 T02640128  RH  043%=      5-min Rain = 0
KAI1 130044Z 09009KT 26/13 A2995 RMK A01 T02630128  RH  043%=      5-min Rain = 0
KAI1 130045Z 08009KT 26/13 A2995 RMK A01 T02630127  RH  043%=      5-min Rain = 0
KAI1 130046Z 08008KT 26/13 A2995 RMK A01 T02620127  RH  043%=      5-min Rain = 0
KAI1 130047Z 08009KT 26/13 A2995 RMK A01 T02620127  RH  043%=      5-min Rain = 0
KAI1 130048Z 08009KT 26/13 A2995 RMK A01 T02620127  RH  043%=      5-min Rain = 0
KAI1 130049Z 08009KT 26/13 A2995 RMK A01 T02610127  RH  043%=      5-min Rain = 0
KAI1 130050Z 08009KT 26/13 A2995 RMK A01 T02600127  RH  043%=      5-min Rain = 0
KAI1 130051Z 08008KT 26/13 A2995 RMK A01 T02590127  RH  044%=      5-min Rain = 0
KAI1 130052Z 08008KT 26/13 A2995 RMK A01 T02580127  RH  044%=      5-min Rain = 0
KAI1 130053Z 09008KT 26/13 A2995 RMK A01 T02580127  RH  044%=      5-min Rain = 0
KAI1 130054Z 08008KT 26/13 A2995 RMK A01 T02570126  RH  044%=      5-min Rain = 0
KAI1 130055Z 08009KT 26/13 A2995 RMK A01 T02570126  RH  044%=      5-min Rain = 0
KAI1 130056Z 09008KT 26/13 A2995 RMK A01 T02570126  RH  044%=      5-min Rain = 0
KAI1 130057Z 09008KT 26/13 A2995 RMK A01 T02560126  RH  044%=      5-min Rain = 0
KAI1 130058Z 09008KT 26/13 A2995 RMK A01 T02550127  RH  045%=      5-min Rain = 0
KAI1 130059Z 09008KT 25/13 A2995 RMK A01 T02530127  RH  045%=      5-min Rain = 0
KAI1 130100Z 09008KT 25/13 A2995 RMK A01 T02520127  RH  046%=      5-min Rain = 0
KAI1 130101Z 09008KT 25/13 A2995 RMK A01 T02510127  RH  046%=      5-min Rain = 0
KAI1 130102Z 09007KT 25/13 A2995 RMK A01 T02500127  RH  046%=      5-min Rain = 0
KAI1 130103Z 09007KT 25/13 A2995 RMK A01 T02490127  RH  047%=      5-min Rain = 0
KAI1 130104Z 09007KT 25/13 A2995 RMK A01 T02480127  RH  047%=      5-min Rain = 0
KAI1 130105Z 09007KT 25/13 A2995 RMK A01 T02470127  RH  047%=      5-min Rain = 0
KAI1 130106Z 08007KT 25/13 A2995 RMK A01 T02470127  RH  047%=      5-min Rain = 0
KAI1 130107Z 08007KT 25/13 A2995 RMK A01 T02450127  RH  048%=      5-min Rain = 0
KAI1 130108Z 09007KT 24/13 A2995 RMK A01 T02440127  RH  048%=      5-min Rain = 0
KAI1 130109Z 09007KT 24/13 A2995 RMK A01 T02430127  RH  048%=      5-min Rain = 0
KAI1 130110Z 09007KT 24/13 A2995 RMK A01 T02430127  RH  048%=      5-min Rain = 0
KAI1 130111Z 09007KT 24/13 A2995 RMK A01 T02420127  RH  049%=      5-min Rain = 0
KAI1 130112Z 09007KT 24/13 A2995 RMK A01 T02410127  RH  049%=      5-min Rain = 0
KAI1 130113Z 09007KT 24/13 A2995 RMK A01 T02400127  RH  049%=      5-min Rain = 0
KAI1 130114Z 09007KT 24/13 A2995 RMK A01 T02400127  RH  049%=      5-min Rain = 0
KAI1 130115Z 09007KT 24/13 A2995 RMK A01 T02390127  RH  049%=      5-min Rain = 0
KAI1 130116Z 09007KT 24/13 A2995 RMK A01 T02390127  RH  050%=      5-min Rain = 0
KAI1 130117Z 09007KT 24/13 A2995 RMK A01 T02380127  RH  050%=      5-min Rain = 0
KAI1 130118Z 09007KT 24/13 A2995 RMK A01 T02370127  RH  050%=      5-min Rain = 0
KAI1 130119Z 09007KT 24/13 A2995 RMK A01 T02360127  RH  050%=      5-min Rain = 0
KAI1 130120Z 09007KT 24/13 A2995 RMK A01 T02350127  RH  051%=      5-min Rain = 0
KAI1 130121Z 08007KT 24/13 A2995 RMK A01 T02350127  RH  051%=      5-min Rain = 0
KAI1 130122Z 09007KT 23/13 A2995 RMK A01 T02340126  RH  051%=      5-min Rain = 0
KAI1 130123Z 08007KT 23/13 A2995 RMK A01 T02340126  RH  051%=      5-min Rain = 0
KAI1 130124Z 09007KT 23/13 A2995 RMK A01 T02340126  RH  051%=      5-min Rain = 0
KAI1 130125Z 08007KT 23/13 A2995 RMK A01 T02340127  RH  051%=      5-min Rain = 0
KAI1 130126Z 08008KT 23/13 A2995 RMK A01 T02330126  RH  051%=      5-min Rain = 0
KAI1 130127Z 08008KT 23/13 A2995 RMK A01 T02330126  RH  051%=      5-min Rain = 0
KAI1 130128Z 08007KT 23/13 A2995 RMK A01 T02320125  RH  051%=      5-min Rain = 0
KAI1 130129Z 08007KT 23/13 A2995 RMK A01 T02320125  RH  051%=      5-min Rain = 0
KAI1 130130Z 08007KT 23/13 A2995 RMK A01 T02320125  RH  051%=      5-min Rain = 0
KAI1 130131Z 08007KT 23/12 A2995 RMK A01 T02310124  RH  051%=      5-min Rain = 0
KAI1 130132Z 08006KT 23/12 A2995 RMK A01 T02310124  RH  051%=      5-min Rain = 0
KAI1 130133Z 08006KT 23/13 A2996 RMK A01 T02300125  RH  051%=      5-min Rain = 0
KAI1 130134Z 08006KT 23/13 A2996 RMK A01 T02290125  RH  052%=      5-min Rain = 0
KAI1 130135Z 08006KT 23/13 A2996 RMK A01 T02270125  RH  052%=      5-min Rain = 0
KAI1 130136Z 08006KT 23/13 A2996 RMK A01 T02270126  RH  053%=      5-min Rain = 0
KAI1 130137Z 08006KT 23/13 A2996 RMK A01 T02250126  RH  054%=      5-min Rain = 0
KAI1 130138Z 08006KT 22/13 A2996 RMK A01 T02240127  RH  054%=      5-min Rain = 0
KAI1 130139Z 08006KT 22/13 A2996 RMK A01 T02220127  RH  055%=      5-min Rain = 0
KAI1 130140Z 08006KT 22/13 A2996 RMK A01 T02210127  RH  055%=      5-min Rain = 0
KAI1 130141Z 08006KT 22/13 A2996 RMK A01 T02200127  RH  055%=      5-min Rain = 0
KAI1 130142Z 08007KT 22/13 A2996 RMK A01 T02200126  RH  055%=      5-min Rain = 0
KAI1 130143Z 08007KT 22/13 A2996 RMK A01 T02200125  RH  055%=      5-min Rain = 0
KAI1 130144Z 08007KT 22/13 A2996 RMK A01 T02200125  RH  055%=      5-min Rain = 0
KAI1 130145Z 09007KT 22/13 A2996 RMK A01 T02200126  RH  055%=      5-min Rain = 0
KAI1 130146Z 09007KT 22/13 A2996 RMK A01 T02190126  RH  056%=      5-min Rain = 0
KAI1 130147Z 09007KT 22/13 A2996 RMK A01 T02180127  RH  056%=      5-min Rain = 0
KAI1 130148Z 09007KT 22/13 A2996 RMK A01 T02160127  RH  057%=      5-min Rain = 0
KAI1 130149Z 09007KT 22/13 A2996 RMK A01 T02150127  RH  057%=      5-min Rain = 0
KAI1 130150Z 09007KT 21/13 A2996 RMK A01 T02140127  RH  058%=      5-min Rain = 0
KAI1 130151Z 09007KT 21/13 A2996 RMK A01 T02130128  RH  058%=      5-min Rain = 0
KAI1 130152Z 09007KT 21/13 A2996 RMK A01 T02120128  RH  059%=      5-min Rain = 0
KAI1 130153Z 09007KT 21/13 A2996 RMK A01 T02110128  RH  059%=      5-min Rain = 0
KAI1 130154Z 09007KT 21/13 A2996 RMK A01 T02100129  RH  060%=      5-min Rain = 0
KAI1 130155Z 09007KT 21/13 A2996 RMK A01 T02090129  RH  060%=      5-min Rain = 0
KAI1 130156Z 09007KT 21/13 A2996 RMK A01 T02080129  RH  060%=      5-min Rain = 0
KAI1 130157Z 09007KT 21/13 A2996 RMK A01 T02070129  RH  061%=      5-min Rain = 0
KAI1 130158Z 09007KT 21/13 A2996 RMK A01 T02070129  RH  061%=      5-min Rain = 0
KAI1 130159Z 09007KT 21/13 A2996 RMK A01 T02060129  RH  061%=      5-min Rain = 0
KAI1 130200Z 09007KT 21/13 A2996 RMK A01 T02050129  RH  062%=      5-min Rain = 0
KAI1 130201Z 09007KT 20/13 A2996 RMK A01 T02040129  RH  062%=      5-min Rain = 0
KAI1 130202Z 09007KT 20/13 A2996 RMK A01 T02040128  RH  062%=      5-min Rain = 0
KAI1 130203Z 09007KT 20/13 A2996 RMK A01 T02040129  RH  062%=      5-min Rain = 0
KAI1 130204Z 09007KT 20/13 A2996 RMK A01 T02040129  RH  062%=      5-min Rain = 0
KAI1 130205Z 09007KT 20/13 A2996 RMK A01 T02030129  RH  062%=      5-min Rain = 0
KAI1 130206Z 09007KT 20/13 A2996 RMK A01 T02030129  RH  062%=      5-min Rain = 0
KAI1 130207Z 09007KT 20/13 A2996 RMK A01 T02020128  RH  062%=      5-min Rain = 0
KAI1 130208Z 09007KT 20/13 A2996 RMK A01 T02020128  RH  062%=      5-min Rain = 0
KAI1 130209Z 09007KT 20/13 A2996 RMK A01 T02020128  RH  062%=      5-min Rain = 0
KAI1 130210Z 09007KT 20/13 A2996 RMK A01 T02020127  RH  062%=      5-min Rain = 0
KAI1 130211Z 09007KT 20/13 A2996 RMK A01 T02030127  RH  062%=      5-min Rain = 0
KAI1 130212Z 09007KT 20/13 A2996 RMK A01 T02030127  RH  062%=      5-min Rain = 0
KAI1 130213Z 09007KT 20/13 A2996 RMK A01 T02030126  RH  061%=      5-min Rain = 0
KAI1 130214Z 08007KT 20/13 A2996 RMK A01 T02030126  RH  061%=      5-min Rain = 0
KAI1 130215Z 09007KT 20/13 A2997 RMK A01 T02030127  RH  061%=      5-min Rain = 0
KAI1 130216Z 09007KT 20/13 A2997 RMK A01 T02030126  RH  061%=      5-min Rain = 0
KAI1 130217Z 09007KT 20/13 A2997 RMK A01 T02030126  RH  061%=      5-min Rain = 0
KAI1 130218Z 09007KT 20/13 A2997 RMK A01 T02020126  RH  061%=      5-min Rain = 0
KAI1 130219Z 09007KT 20/13 A2997 RMK A01 T02020126  RH  062%=      5-min Rain = 0
KAI1 130220Z 09007KT 20/13 A2997 RMK A01 T02010126  RH  062%=      5-min Rain = 0
KAI1 130221Z 09007KT 20/13 A2997 RMK A01 T02000126  RH  062%=      5-min Rain = 0
KAI1 130222Z 09007KT 20/13 A2997 RMK A01 T02000126  RH  062%=      5-min Rain = 0
KAI1 130223Z 09007KT 20/13 A2997 RMK A01 T01990125  RH  062%=      5-min Rain = 0
KAI1 130224Z 09007KT 20/13 A2997 RMK A01 T01990126  RH  063%=      5-min Rain = 0
KAI1 130225Z 09007KT 20/13 A2997 RMK A01 T01990126  RH  063%=      5-min Rain = 0
KAI1 130226Z 09007KT 20/13 A2997 RMK A01 T01990126  RH  063%=      5-min Rain = 0
KAI1 130227Z 09007KT 20/13 A2997 RMK A01 T01980126  RH  063%=      5-min Rain = 0
KAI1 130228Z 09007KT 20/13 A2997 RMK A01 T01970126  RH  063%=      5-min Rain = 0
KAI1 130229Z 09007KT 20/13 A2997 RMK A01 T01970126  RH  064%=      5-min Rain = 0
KAI1 130230Z 09007KT 20/13 A2997 RMK A01 T01960127  RH  064%=      5-min Rain = 0
KAI1 130231Z 09007KT 20/13 A2997 RMK A01 T01950126  RH  064%=      5-min Rain = 0
KAI1 130232Z 09007KT 20/13 A2997 RMK A01 T01950127  RH  065%=      5-min Rain = 0
KAI1 130233Z 09007KT 19/13 A2997 RMK A01 T01940127  RH  065%=      5-min Rain = 0
KAI1 130234Z 09007KT 19/13 A2997 RMK A01 T01930126  RH  065%=      5-min Rain = 0
KAI1 130235Z 09007KT 19/13 A2997 RMK A01 T01930126  RH  065%=      5-min Rain = 0
KAI1 130236Z 09007KT 19/13 A2997 RMK A01 T01930126  RH  065%=      5-min Rain = 0
KAI1 130237Z 09007KT 19/13 A2997 RMK A01 T01930126  RH  065%=      5-min Rain = 0
KAI1 130238Z 09007KT 19/13 A2997 RMK A01 T01920126  RH  065%=      5-min Rain = 0
KAI1 130239Z 09007KT 19/13 A2997 RMK A01 T01920126  RH  065%=      5-min Rain = 0
KAI1 130240Z 09007KT 19/13 A2997 RMK A01 T01920125  RH  065%=      5-min Rain = 0
KAI1 130241Z 09007KT 19/13 A2997 RMK A01 T01920125  RH  065%=      5-min Rain = 0
KAI1 130242Z 09007KT 19/13 A2997 RMK A01 T01920126  RH  065%=      5-min Rain = 0
KAI1 130243Z 09007KT 19/13 A2997 RMK A01 T01920126  RH  066%=      5-min Rain = 0
KAI1 130244Z 09007KT 19/13 A2997 RMK A01 T01910126  RH  066%=      5-min Rain = 0
KAI1 130245Z 09006KT 19/13 A2997 RMK A01 T01900126  RH  066%=      5-min Rain = 0
KAI1 130246Z 09006KT 19/13 A2997 RMK A01 T01900125  RH  066%=      5-min Rain = 0
KAI1 130247Z 09006KT 19/13 A2997 RMK A01 T01900125  RH  066%=      5-min Rain = 0
KAI1 130248Z 09007KT 19/13 A2997 RMK A01 T01890126  RH  067%=      5-min Rain = 0
KAI1 130249Z 09007KT 19/13 A2997 RMK A01 T01880127  RH  067%=      5-min Rain = 0
KAI1 130250Z 09007KT 19/13 A2997 RMK A01 T01870126  RH  068%=      5-min Rain = 0
KAI1 130251Z 10007KT 19/13 A2997 RMK A01 T01870127  RH  068%=      5-min Rain = 0
KAI1 130252Z 10007KT 19/13 A2997 RMK A01 T01860126  RH  068%=      5-min Rain = 0
KAI1 130253Z 10007KT 19/13 A2997 RMK A01 T01870125  RH  067%=      5-min Rain = 0
KAI1 130254Z 10007KT 19/13 A2997 RMK A01 T01880125  RH  067%=      5-min Rain = 0
KAI1 130255Z 10007KT 19/12 A2997 RMK A01 T01890124  RH  066%=      5-min Rain = 0
KAI1 130256Z 10007KT 19/12 A2997 RMK A01 T01900124  RH  066%=      5-min Rain = 0
KAI1 130257Z 10007KT 19/12 A2997 RMK A01 T01910124  RH  065%=      5-min Rain = 0
KAI1 130258Z 10007KT 19/12 A2997 RMK A01 T01910124  RH  065%=      5-min Rain = 0
KAI1 130259Z 10007KT 19/12 A2997 RMK A01 T01920124  RH  065%=      5-min Rain = 0
KAI1 130300Z 10007KT 19/12 A2997 RMK A01 T01920124  RH  065%=      5-min Rain = 0
KAI1 130301Z 10007KT 19/12 A2997 RMK A01 T01920124  RH  065%=      5-min Rain = 0
KAI1 130302Z 10007KT 19/12 A2997 RMK A01 T01930124  RH  064%=      5-min Rain = 0
KAI1 130303Z 11007KT 19/12 A2998 RMK A01 T01940123  RH  064%=      5-min Rain = 0
KAI1 130304Z 11007KT 20/12 A2998 RMK A01 T01950123  RH  063%=      5-min Rain = 0
KAI1 130305Z 11007KT 20/12 A2998 RMK A01 T01950123  RH  063%=      5-min Rain = 0
KAI1 130306Z 10007KT 20/12 A2998 RMK A01 T01950124  RH  063%=      5-min Rain = 0
KAI1 130307Z 11007KT 20/12 A2998 RMK A01 T01950124  RH  064%=      5-min Rain = 0
KAI1 130308Z 11007KT 19/12 A2998 RMK A01 T01940124  RH  064%=      5-min Rain = 0
KAI1 130309Z 11007KT 19/13 A2998 RMK A01 T01930125  RH  065%=      5-min Rain = 0
KAI1 130310Z 11007KT 19/13 A2998 RMK A01 T01920125  RH  065%=      5-min Rain = 0
KAI1 130311Z 10007KT 19/13 A2998 RMK A01 T01910125  RH  066%=      5-min Rain = 0
KAI1 130312Z 10007KT 19/13 A2998 RMK A01 T01900125  RH  066%=      5-min Rain = 0
KAI1 130313Z 10007KT 19/13 A2998 RMK A01 T01890125  RH  066%=      5-min Rain = 0
KAI1 130314Z 10007KT 19/13 A2998 RMK A01 T01880125  RH  067%=      5-min Rain = 0
KAI1 130315Z 10006KT 19/13 A2998 RMK A01 T01880125  RH  067%=      5-min Rain = 0
KAI1 130316Z 10006KT 19/13 A2998 RMK A01 T01870125  RH  067%=      5-min Rain = 0
KAI1 130317Z 10006KT 19/13 A2998 RMK A01 T01860125  RH  068%=      5-min Rain = 0
KAI1 130318Z 10006KT 19/13 A2998 RMK A01 T01860126  RH  068%=      5-min Rain = 0
KAI1 130319Z 10005KT 19/13 A2998 RMK A01 T01850127  RH  069%=      5-min Rain = 0
KAI1 130320Z 10005KT 19/13 A2998 RMK A01 T01850127  RH  069%=      5-min Rain = 0
KAI1 130321Z 10005KT 18/13 A2998 RMK A01 T01840126  RH  069%=      5-min Rain = 0
KAI1 130322Z 10006KT 18/13 A2998 RMK A01 T01840126  RH  069%=      5-min Rain = 0
KAI1 130323Z 10006KT 18/13 A2998 RMK A01 T01830126  RH  069%=      5-min Rain = 0
KAI1 130324Z 11006KT 18/13 A2998 RMK A01 T01830125  RH  069%=      5-min Rain = 0
KAI1 130325Z 11007KT 18/13 A2998 RMK A01 T01830125  RH  069%=      5-min Rain = 0
KAI1 130326Z 12007KT 18/13 A2998 RMK A01 T01830126  RH  069%=      5-min Rain = 0
KAI1 130327Z 12006KT 18/13 A2998 RMK A01 T01830126  RH  069%=      5-min Rain = 0
KAI1 130328Z 13006KT 18/13 A2998 RMK A01 T01830125  RH  069%=      5-min Rain = 0
KAI1 130329Z 12006KT 18/12 A2998 RMK A01 T01830123  RH  068%=      5-min Rain = 0
KAI1 130330Z 13006KT 18/12 A2998 RMK A01 T01830122  RH  067%=      5-min Rain = 0
KAI1 130331Z 13006KT 18/12 A2998 RMK A01 T01830121  RH  067%=      5-min Rain = 0
KAI1 130332Z 12006KT 18/12 A2998 RMK A01 T01830121  RH  067%=      5-min Rain = 0
KAI1 130333Z 12006KT 18/12 A2998 RMK A01 T01830119  RH  066%=      5-min Rain = 0
KAI1 130334Z 12006KT 18/12 A2998 RMK A01 T01830118  RH  066%=      5-min Rain = 0
KAI1 130335Z 12006KT 18/12 A2998 RMK A01 T01830118  RH  066%=      5-min Rain = 0
KAI1 130336Z 12006KT 18/12 A2998 RMK A01 T01830117  RH  065%=      5-min Rain = 0
KAI1 130337Z 12006KT 18/12 A2998 RMK A01 T01830117  RH  065%=      5-min Rain = 0
KAI1 130338Z 12006KT 18/12 A2998 RMK A01 T01830117  RH  065%=      5-min Rain = 0
KAI1 130339Z 12006KT 18/12 A2998 RMK A01 T01830117  RH  065%=      5-min Rain = 0
KAI1 130340Z 12006KT 18/12 A2998 RMK A01 T01820118  RH  066%=      5-min Rain = 0
KAI1 130341Z 12005KT 18/12 A2998 RMK A01 T01810120  RH  067%=      5-min Rain = 0
KAI1 130342Z 12006KT 18/12 A2998 RMK A01 T01790120  RH  068%=      5-min Rain = 0
KAI1 130343Z 12006KT 18/12 A2998 RMK A01 T01790120  RH  068%=      5-min Rain = 0
KAI1 130344Z 12006KT 18/12 A2998 RMK A01 T01780120  RH  069%=      5-min Rain = 0
KAI1 130345Z 12006KT 18/12 A2998 RMK A01 T01780120  RH  069%=      5-min Rain = 0
KAI1 130346Z 12006KT 18/12 A2998 RMK A01 T01780120  RH  069%=      5-min Rain = 0
KAI1 130347Z 12006KT 18/12 A2998 RMK A01 T01780119  RH  068%=      5-min Rain = 0
KAI1 130348Z 12006KT 18/12 A2998 RMK A01 T01780118  RH  068%=      5-min Rain = 0
KAI1 130349Z 12006KT 18/12 A2998 RMK A01 T01790117  RH  067%=      5-min Rain = 0
KAI1 130350Z 12006KT 18/12 A2998 RMK A01 T01800118  RH  067%=      5-min Rain = 0
KAI1 130351Z 11006KT 18/12 A2998 RMK A01 T01820118  RH  066%=      5-min Rain = 0
KAI1 130352Z 11006KT 18/12 A2998 RMK A01 T01830118  RH  066%=      5-min Rain = 0
KAI1 130353Z 11006KT 18/12 A2998 RMK A01 T01830119  RH  066%=      5-min Rain = 0
KAI1 130354Z 11006KT 18/12 A2998 RMK A01 T01830120  RH  066%=      5-min Rain = 0
KAI1 130355Z 11006KT 18/12 A2998 RMK A01 T01820120  RH  067%=      5-min Rain = 0
KAI1 130356Z 11006KT 18/12 A2998 RMK A01 T01820120  RH  067%=      5-min Rain = 0
KAI1 130357Z 11006KT 18/12 A2998 RMK A01 T01810120  RH  067%=      5-min Rain = 0
KAI1 130358Z 11006KT 18/12 A2998 RMK A01 T01810121  RH  068%=      5-min Rain = 0
KAI1 130359Z 12007KT 18/12 A2998 RMK A01 T01800121  RH  069%=      5-min Rain = 0
KAI1 130400Z 12007KT 18/12 A2998 RMK A01 T01790121  RH  069%=      5-min Rain = 0
KAI1 130401Z 12007KT 18/12 A2998 RMK A01 T01780121  RH  069%=      5-min Rain = 0
KAI1 130402Z 12007KT 18/12 A2998 RMK A01 T01770121  RH  069%=      5-min Rain = 0
KAI1 130403Z 12007KT 18/12 A2998 RMK A01 T01770121  RH  070%=      5-min Rain = 0
KAI1 130404Z 12007KT 18/12 A2998 RMK A01 T01770121  RH  070%=      5-min Rain = 0
KAI1 130405Z 12007KT 18/12 A2998 RMK A01 T01760121  RH  070%=      5-min Rain = 0
KAI1 130406Z 12007KT 18/12 A2998 RMK A01 T01760121  RH  070%=      5-min Rain = 0
KAI1 130407Z 12007KT 18/12 A2998 RMK A01 T01760121  RH  070%=      5-min Rain = 0
KAI1 130408Z 12007KT 18/12 A2998 RMK A01 T01760121  RH  070%=      5-min Rain = 0
KAI1 130409Z 12006KT 18/12 A2998 RMK A01 T01760121  RH  070%=      5-min Rain = 0
KAI1 130410Z 12006KT 18/12 A2998 RMK A01 T01750121  RH  070%=      5-min Rain = 0
KAI1 130411Z 12006KT 18/12 A2998 RMK A01 T01750120  RH  070%=      5-min Rain = 0
KAI1 130412Z 12006KT 17/12 A2998 RMK A01 T01740121  RH  071%=      5-min Rain = 0
KAI1 130413Z 12006KT 17/12 A2998 RMK A01 T01730121  RH  071%=      5-min Rain = 0
KAI1 130414Z 12006KT 17/12 A2998 RMK A01 T01730122  RH  072%=      5-min Rain = 0
KAI1 130415Z 11007KT 17/12 A2998 RMK A01 T01720121  RH  072%=      5-min Rain = 0
KAI1 130416Z 11007KT 17/12 A2998 RMK A01 T01720120  RH  071%=      5-min Rain = 0
KAI1 130417Z 11007KT 17/12 A2998 RMK A01 T01720120  RH  071%=      5-min Rain = 0
KAI1 130418Z 11007KT 17/12 A2998 RMK A01 T01730120  RH  071%=      5-min Rain = 0
KAI1 130419Z 11006KT 17/12 A2998 RMK A01 T01730120  RH  071%=      5-min Rain = 0
KAI1 130420Z 11006KT 17/12 A2998 RMK A01 T01730121  RH  072%=      5-min Rain = 0
KAI1 130421Z 12006KT 17/12 A2998 RMK A01 T01710121  RH  072%=      5-min Rain = 0
KAI1 130422Z 12006KT 17/12 A2998 RMK A01 T01700121  RH  073%=      5-min Rain = 0
KAI1 130423Z 12006KT 17/12 A2998 RMK A01 T01700121  RH  073%=      5-min Rain = 0
KAI1 130424Z 12007KT 17/12 A2998 RMK A01 T01690121  RH  073%=      5-min Rain = 0
KAI1 130425Z 12007KT 17/12 A2998 RMK A01 T01700120  RH  073%=      5-min Rain = 0
KAI1 130426Z 12007KT 17/12 A2998 RMK A01 T01690119  RH  072%=      5-min Rain = 0
KAI1 130427Z 12007KT 17/12 A2998 RMK A01 T01700118  RH  071%=      5-min Rain = 0
KAI1 130428Z 11007KT 17/12 A2998 RMK A01 T01710117  RH  070%=      5-min Rain = 0
KAI1 130429Z 11007KT 17/12 A2998 RMK A01 T01720117  RH  070%=      5-min Rain = 0
KAI1 130430Z 11007KT 17/12 A2998 RMK A01 T01720116  RH  070%=      5-min Rain = 0
KAI1 130431Z 11007KT 17/12 A2998 RMK A01 T01730116  RH  069%=      5-min Rain = 0
KAI1 130432Z 11007KT 17/12 A2998 RMK A01 T01730116  RH  069%=      5-min Rain = 0
KAI1 130433Z 11007KT 17/12 A2998 RMK A01 T01740116  RH  069%=      5-min Rain = 0
KAI1 130434Z 12007KT 17/12 A2998 RMK A01 T01740115  RH  068%=      5-min Rain = 0
KAI1 130435Z 12006KT 17/12 A2999 RMK A01 T01740115  RH  068%=      5-min Rain = 0
KAI1 130436Z 11006KT 17/11 A2999 RMK A01 T01740114  RH  068%=      5-min Rain = 0
KAI1 130437Z 11006KT 17/11 A2999 RMK A01 T01740114  RH  068%=      5-min Rain = 0
KAI1 130438Z 11006KT 17/11 A2999 RMK A01 T01740113  RH  068%=      5-min Rain = 0
KAI1 130439Z 11006KT 17/11 A2999 RMK A01 T01740113  RH  067%=      5-min Rain = 0
KAI1 130440Z 11006KT 17/11 A2999 RMK A01 T01740113  RH  067%=      5-min Rain = 0
KAI1 130441Z 11006KT 17/11 A2999 RMK A01 T01740114  RH  068%=      5-min Rain = 0
KAI1 130442Z 11007KT 17/12 A2999 RMK A01 T01730115  RH  068%=      5-min Rain = 0
KAI1 130443Z 11007KT 17/11 A2999 RMK A01 T01720114  RH  069%=      5-min Rain = 0
KAI1 130444Z 11007KT 17/11 A2999 RMK A01 T01710114  RH  069%=      5-min Rain = 0
KAI1 130445Z 11008KT 17/11 A2999 RMK A01 T01710114  RH  069%=      5-min Rain = 0
KAI1 130446Z 11007KT 17/11 A2999 RMK A01 T01710113  RH  069%=      5-min Rain = 0
KAI1 130447Z 11007KT 17/11 A2999 RMK A01 T01710113  RH  069%=      5-min Rain = 0
KAI1 130448Z 11007KT 17/11 A2999 RMK A01 T01700113  RH  069%=      5-min Rain = 0
KAI1 130449Z 11007KT 17/11 A2999 RMK A01 T01700114  RH  069%=      5-min Rain = 0
KAI1 130450Z 11006KT 17/11 A2999 RMK A01 T01700114  RH  070%=      5-min Rain = 0
KAI1 130451Z 11006KT 17/11 A2999 RMK A01 T01690114  RH  070%=      5-min Rain = 0
KAI1 130452Z 11006KT 17/12 A2999 RMK A01 T01680115  RH  071%=      5-min Rain = 0
KAI1 130453Z 11006KT 17/12 A2999 RMK A01 T01670115  RH  071%=      5-min Rain = 0
KAI1 130454Z 11006KT 17/12 A2999 RMK A01 T01670116  RH  072%=      5-min Rain = 0
KAI1 130455Z 11006KT 17/12 A2999 RMK A01 T01660116  RH  072%=      5-min Rain = 0
KAI1 130456Z 11006KT 17/12 A2999 RMK A01 T01660116  RH  072%=      5-min Rain = 0
KAI1 130457Z 11006KT 17/12 A2999 RMK A01 T01660116  RH  072%=      5-min Rain = 0
KAI1 130458Z 11006KT 17/12 A2999 RMK A01 T01660116  RH  072%=      5-min Rain = 0
KAI1 130459Z 12006KT 17/12 A2999 RMK A01 T01660116  RH  072%=      5-min Rain = 0

Page generated in 0.1065 seconds.